Time,TemperatureF,DewpointF,PressureIn,WindDirection,WindDirectionDegrees,WindSpeedMPH,WindSpeedGustMPH,Humidity,HourlyPrecipIn,Conditions,Clouds,dailyrainin,SoftwareType,DateUTC
2013-05-06 00:01:00,45.0,42.0,30.28,WSW,243,0.0,0.0,89,0.00,,,0.00,Wunderground v.1.15,2013-05-06 04:01:00,
2013-05-06 00:02:00,45.1,42.1,30.28,WSW,243,0.0,0.0,89,0.00,,,0.00,Wunderground v.1.15,2013-05-06 04:02:00,
2013-05-06 00:03:00,45.1,42.1,30.28,WSW,244,0.0,0.0,89,0.00,,,0.00,Wunderground v.1.15,2013-05-06 04:03:00,
2013-05-06 00:08:00,45.1,41.8,30.28,WNW,283,0.0,3.0,88,0.00,,,0.00,Wunderground v.1.15,2013-05-06 04:08:00,
2013-05-06 00:09:00,45.2,41.9,30.28,West,259,2.0,3.0,88,0.00,,,0.00,Wunderground v.1.15,2013-05-06 04:09:00,
2013-05-06 00:11:00,45.2,41.9,30.28,WSW,255,0.0,1.0,88,0.00,,,0.00,Wunderground v.1.15,2013-05-06 04:11:00,
2013-05-06 00:14:00,45.2,41.9,30.28,WSW,255,0.0,1.0,88,0.00,,,0.00,Wunderground v.1.15,2013-05-06 04:14:00,
2013-05-06 00:15:00,45.2,41.9,30.28,NW,311,1.0,1.0,88,0.00,,,0.00,Wunderground v.1.15,2013-05-06 04:15:00,
2013-05-06 00:16:00,45.3,42.0,30.28,West,262,0.0,1.0,88,0.00,,,0.00,Wunderground v.1.15,2013-05-06 04:16:00,
2013-05-06 00:18:00,45.3,42.0,30.28,West,261,0.0,1.0,88,0.00,,,0.00,Wunderground v.1.15,2013-05-06 04:18:00,
2013-05-06 00:21:00,45.3,42.0,30.28,West,261,0.0,0.0,88,0.00,,,0.00,Wunderground v.1.15,2013-05-06 04:21:00,
2013-05-06 00:22:00,45.3,42.0,30.28,West,262,0.0,0.0,88,0.00,,,0.00,Wunderground v.1.15,2013-05-06 04:22:00,
2013-05-06 00:23:00,45.3,42.0,30.28,West,262,0.0,0.0,88,0.00,,,0.00,Wunderground v.1.15,2013-05-06 04:23:00,
2013-05-06 00:25:00,45.3,42.0,30.28,WNW,291,0.0,0.0,88,0.00,,,0.00,Wunderground v.1.15,2013-05-06 04:25:00,
2013-05-06 00:27:00,45.2,41.9,30.28,WNW,293,0.0,0.0,88,0.00,,,0.00,Wunderground v.1.15,2013-05-06 04:27:00,
2013-05-06 00:30:00,45.2,41.9,30.28,NW,307,0.0,0.0,88,0.00,,,0.00,Wunderground v.1.15,2013-05-06 04:30:00,
2013-05-06 00:31:00,45.2,41.9,30.28,NW,307,0.0,0.0,88,0.00,,,0.00,Wunderground v.1.15,2013-05-06 04:31:00,
2013-05-06 00:32:00,45.2,41.9,30.28,NW,307,0.0,0.0,88,0.00,,,0.00,Wunderground v.1.15,2013-05-06 04:32:00,
2013-05-06 00:34:00,45.2,41.9,30.28,West,264,1.0,1.0,88,0.00,,,0.00,Wunderground v.1.15,2013-05-06 04:34:00,
2013-05-06 00:36:00,45.2,41.9,30.28,SSW,203,2.0,2.0,88,0.00,,,0.00,Wunderground v.1.15,2013-05-06 04:36:00,
2013-05-06 00:37:00,45.2,41.9,30.28,SSW,211,0.0,2.0,88,0.00,,,0.00,Wunderground v.1.15,2013-05-06 04:37:00,
2013-05-06 00:38:00,45.2,41.9,30.28,SSW,211,0.0,2.0,88,0.00,,,0.00,Wunderground v.1.15,2013-05-06 04:38:00,
2013-05-06 00:43:00,45.2,41.6,30.28,WSW,252,0.0,0.0,87,0.00,,,0.00,Wunderground v.1.15,2013-05-06 04:43:00,
2013-05-06 00:44:00,45.2,41.6,30.28,SW,233,1.0,1.0,87,0.00,,,0.00,Wunderground v.1.15,2013-05-06 04:44:00,
2013-05-06 00:45:00,45.1,41.5,30.28,WSW,243,0.0,1.0,87,0.00,,,0.00,Wunderground v.1.15,2013-05-06 04:45:00,
2013-05-06 00:48:00,45.2,41.6,30.28,SW,220,0.0,1.0,87,0.00,,,0.00,Wunderground v.1.15,2013-05-06 04:48:00,
2013-05-06 00:49:00,45.1,41.5,30.28,SW,221,0.0,1.0,87,0.00,,,0.00,Wunderground v.1.15,2013-05-06 04:49:00,
2013-05-06 00:51:00,45.2,41.6,30.28,SW,221,0.0,0.0,87,0.00,,,0.00,Wunderground v.1.15,2013-05-06 04:51:00,
2013-05-06 00:54:00,45.1,41.5,30.28,SW,221,0.0,0.0,87,0.00,,,0.00,Wunderground v.1.15,2013-05-06 04:54:00,
2013-05-06 00:55:00,45.1,41.5,30.28,SW,221,0.0,0.0,87,0.00,,,0.00,Wunderground v.1.15,2013-05-06 04:55:00,
2013-05-06 00:58:00,45.1,41.5,30.28,SW,221,0.0,0.0,87,0.00,,,0.00,Wunderground v.1.15,2013-05-06 04:58:00,
2013-05-06 01:01:00,45.1,41.5,30.28,SSW,200,1.0,1.0,87,0.00,,,0.00,Wunderground v.1.15,2013-05-06 05:01:00,
2013-05-06 01:02:00,45.1,41.5,30.28,SW,221,0.0,1.0,87,0.00,,,0.00,Wunderground v.1.15,2013-05-06 05:02:00,
2013-05-06 01:03:00,45.1,41.5,30.28,SW,221,0.0,1.0,87,0.00,,,0.00,Wunderground v.1.15,2013-05-06 05:03:00,
2013-05-06 01:06:00,45.0,41.4,30.28,SW,218,0.0,1.0,87,0.00,,,0.00,Wunderground v.1.15,2013-05-06 05:06:00,
2013-05-06 01:09:00,45.0,41.4,30.28,SW,218,0.0,1.0,87,0.00,,,0.00,Wunderground v.1.15,2013-05-06 05:09:00,
2013-05-06 01:10:00,45.0,41.4,30.28,SW,218,0.0,0.0,87,0.00,,,0.00,Wunderground v.1.15,2013-05-06 05:10:00,
2013-05-06 01:11:00,44.9,41.3,30.28,SW,219,0.0,0.0,87,0.00,,,0.00,Wunderground v.1.15,2013-05-06 05:11:00,
2013-05-06 01:12:00,45.0,41.4,30.28,SW,219,0.0,0.0,87,0.00,,,0.00,Wunderground v.1.15,2013-05-06 05:12:00,
2013-05-06 01:14:00,44.9,41.3,30.28,SW,219,0.0,0.0,87,0.00,,,0.00,Wunderground v.1.15,2013-05-06 05:14:00,
2013-05-06 01:17:00,44.9,41.3,30.27,SW,219,0.0,0.0,87,0.00,,,0.00,Wunderground v.1.15,2013-05-06 05:17:00,
2013-05-06 01:18:00,44.9,41.3,30.27,SW,219,0.0,0.0,87,0.00,,,0.00,Wunderground v.1.15,2013-05-06 05:18:00,
2013-05-06 01:20:00,44.9,41.3,30.27,SW,218,0.0,0.0,87,0.00,,,0.00,Wunderground v.1.15,2013-05-06 05:20:00,
2013-05-06 01:23:00,44.9,41.3,30.27,West,263,0.0,0.0,87,0.00,,,0.00,Wunderground v.1.15,2013-05-06 05:23:00,
2013-05-06 01:25:00,44.8,41.2,30.27,West,262,0.0,0.0,87,0.00,,,0.00,Wunderground v.1.15,2013-05-06 05:25:00,
2013-05-06 01:26:00,44.8,41.2,30.27,West,263,0.0,0.0,87,0.00,,,0.00,Wunderground v.1.15,2013-05-06 05:26:00,
2013-05-06 01:29:00,44.8,41.2,30.27,West,262,0.0,0.0,87,0.00,,,0.00,Wunderground v.1.15,2013-05-06 05:29:00,
2013-05-06 01:31:00,44.8,41.2,30.27,West,262,0.0,0.0,87,0.00,,,0.00,Wunderground v.1.15,2013-05-06 05:31:00,
2013-05-06 01:33:00,44.7,41.1,30.27,West,262,0.0,0.0,87,0.00,,,0.00,Wunderground v.1.15,2013-05-06 05:33:00,
2013-05-06 01:34:00,44.7,41.1,30.27,West,263,0.0,0.0,87,0.00,,,0.00,Wunderground v.1.15,2013-05-06 05:34:00,
2013-05-06 01:36:00,44.7,41.1,30.27,West,263,0.0,0.0,87,0.00,,,0.00,Wunderground v.1.15,2013-05-06 05:36:00,
2013-05-06 01:39:00,44.7,41.1,30.27,West,262,0.0,0.0,87,0.00,,,0.00,Wunderground v.1.15,2013-05-06 05:39:00,
2013-05-06 01:41:00,44.7,41.1,30.27,West,263,0.0,0.0,87,0.00,,,0.00,Wunderground v.1.15,2013-05-06 05:41:00,
2013-05-06 01:42:00,44.7,41.1,30.27,West,263,0.0,0.0,87,0.00,,,0.00,Wunderground v.1.15,2013-05-06 05:42:00,
2013-05-06 01:44:00,44.6,41.0,30.27,West,263,0.0,0.0,87,0.00,,,0.00,Wunderground v.1.15,2013-05-06 05:44:00,
2013-05-06 01:46:00,44.6,41.0,30.27,West,262,0.0,0.0,87,0.00,,,0.00,Wunderground v.1.15,2013-05-06 05:46:00,
2013-05-06 01:47:00,44.6,41.0,30.27,West,262,0.0,0.0,87,0.00,,,0.00,Wunderground v.1.15,2013-05-06 05:47:00,
2013-05-06 01:49:00,44.6,41.0,30.27,West,262,0.0,0.0,87,0.00,,,0.00,Wunderground v.1.15,2013-05-06 05:49:00,
2013-05-06 01:52:00,44.6,41.0,30.27,West,263,0.0,0.0,87,0.00,,,0.00,Wunderground v.1.15,2013-05-06 05:52:00,
2013-05-06 01:54:00,44.6,41.0,30.27,West,263,0.0,0.0,87,0.00,,,0.00,Wunderground v.1.15,2013-05-06 05:54:00,
2013-05-06 01:55:00,44.6,41.0,30.27,West,263,0.0,0.0,87,0.00,,,0.00,Wunderground v.1.15,2013-05-06 05:55:00,
2013-05-06 01:57:00,44.5,40.9,30.27,West,263,0.0,0.0,87,0.00,,,0.00,Wunderground v.1.15,2013-05-06 05:57:00,
2013-05-06 01:59:00,44.5,40.9,30.27,WSW,252,0.0,0.0,87,0.00,,,0.00,Wunderground v.1.15,2013-05-06 05:59:00,
2013-05-06 02:00:00,44.5,40.9,30.27,WSW,252,0.0,0.0,87,0.00,,,0.00,Wunderground v.1.15,2013-05-06 06:00:00,
2013-05-06 02:01:00,44.5,40.9,30.27,WSW,252,0.0,0.0,87,0.00,,,0.00,Wunderground v.1.15,2013-05-06 06:01:00,
2013-05-06 02:02:00,44.5,40.9,30.27,WSW,252,0.0,0.0,87,0.00,,,0.00,Wunderground v.1.15,2013-05-06 06:02:00,
2013-05-06 02:04:00,44.5,40.9,30.27,WSW,252,0.0,1.0,87,0.00,,,0.00,Wunderground v.1.15,2013-05-06 06:04:00,
2013-05-06 02:05:00,44.5,40.9,30.27,WSW,252,0.0,1.0,87,0.00,,,0.00,Wunderground v.1.15,2013-05-06 06:05:00,
2013-05-06 02:06:00,44.5,40.9,30.27,WSW,252,0.0,1.0,87,0.00,,,0.00,Wunderground v.1.15,2013-05-06 06:06:00,
2013-05-06 02:07:00,44.5,40.9,30.27,WSW,252,0.0,1.0,87,0.00,,,0.00,Wunderground v.1.15,2013-05-06 06:07:00,
2013-05-06 02:09:00,44.5,40.9,30.27,WSW,252,0.0,1.0,87,0.00,,,0.00,Wunderground v.1.15,2013-05-06 06:09:00,
2013-05-06 02:10:00,44.5,40.9,30.27,WSW,252,0.0,0.0,87,0.00,,,0.00,Wunderground v.1.15,2013-05-06 06:10:00,
2013-05-06 02:11:00,44.5,40.9,30.27,WSW,252,0.0,0.0,87,0.00,,,0.00,Wunderground v.1.15,2013-05-06 06:11:00,
2013-05-06 02:12:00,44.5,40.9,30.27,WSW,253,0.0,0.0,87,0.00,,,0.00,Wunderground v.1.15,2013-05-06 06:12:00,
2013-05-06 02:14:00,44.5,40.9,30.27,WSW,252,0.0,0.0,87,0.00,,,0.00,Wunderground v.1.15,2013-05-06 06:14:00,
2013-05-06 02:15:00,44.5,40.9,30.27,WSW,252,0.0,0.0,87,0.00,,,0.00,Wunderground v.1.15,2013-05-06 06:15:00,
2013-05-06 02:17:00,44.5,40.9,30.27,WSW,252,0.0,0.0,87,0.00,,,0.00,Wunderground v.1.15,2013-05-06 06:17:00,
2013-05-06 02:19:00,44.5,40.9,30.27,WSW,252,0.0,0.0,87,0.00,,,0.00,Wunderground v.1.15,2013-05-06 06:19:00,
2013-05-06 02:21:00,44.5,40.9,30.27,WSW,252,0.0,0.0,87,0.00,,,0.00,Wunderground v.1.15,2013-05-06 06:21:00,
2013-05-06 02:22:00,44.5,40.9,30.27,WSW,252,0.0,0.0,87,0.00,,,0.00,Wunderground v.1.15,2013-05-06 06:22:00,
2013-05-06 02:23:00,44.5,40.9,30.27,WSW,252,0.0,0.0,87,0.00,,,0.00,Wunderground v.1.15,2013-05-06 06:23:00,
2013-05-06 02:24:00,44.5,40.9,30.26,WSW,242,0.0,0.0,87,0.00,,,0.00,Wunderground v.1.15,2013-05-06 06:24:00,
2013-05-06 02:26:00,44.5,40.9,30.26,WSW,242,0.0,0.0,87,0.00,,,0.00,Wunderground v.1.15,2013-05-06 06:26:00,
2013-05-06 02:27:00,44.5,40.9,30.26,WSW,242,0.0,0.0,87,0.00,,,0.00,Wunderground v.1.15,2013-05-06 06:27:00,
2013-05-06 02:28:00,44.5,40.9,30.26,WSW,242,0.0,0.0,87,0.00,,,0.00,Wunderground v.1.15,2013-05-06 06:28:00,
2013-05-06 02:30:00,44.4,40.8,30.26,SSW,203,2.0,2.0,87,0.00,,,0.00,Wunderground v.1.15,2013-05-06 06:30:00,
2013-05-06 02:31:00,44.5,40.9,30.26,SSW,193,1.0,3.0,87,0.00,,,0.00,Wunderground v.1.15,2013-05-06 06:31:00,
2013-05-06 02:32:00,44.4,40.8,30.26,South,185,2.0,3.0,87,0.00,,,0.00,Wunderground v.1.15,2013-05-06 06:32:00,
2013-05-06 02:33:00,44.4,40.8,30.26,South,177,0.0,3.0,87,0.00,,,0.00,Wunderground v.1.15,2013-05-06 06:33:00,
2013-05-06 02:34:00,44.4,40.8,30.26,South,176,0.0,3.0,87,0.00,,,0.00,Wunderground v.1.15,2013-05-06 06:34:00,
2013-05-06 02:35:00,44.4,40.8,30.26,South,176,0.0,3.0,87,0.00,,,0.00,Wunderground v.1.15,2013-05-06 06:35:00,
2013-05-06 02:36:00,44.4,40.8,30.26,South,176,0.0,3.0,87,0.00,,,0.00,Wunderground v.1.15,2013-05-06 06:36:00,
2013-05-06 02:37:00,44.4,40.8,30.26,South,176,0.0,3.0,87,0.00,,,0.00,Wunderground v.1.15,2013-05-06 06:37:00,
2013-05-06 02:38:00,44.3,40.7,30.26,South,176,0.0,3.0,87,0.00,,,0.00,Wunderground v.1.15,2013-05-06 06:38:00,
2013-05-06 02:39:00,44.3,40.7,30.26,South,176,0.0,3.0,87,0.00,,,0.00,Wunderground v.1.15,2013-05-06 06:39:00,
2013-05-06 02:40:00,44.3,40.7,30.26,South,176,0.0,1.0,87,0.00,,,0.00,Wunderground v.1.15,2013-05-06 06:40:00,
2013-05-06 02:41:00,44.3,40.7,30.26,South,176,0.0,1.0,87,0.00,,,0.00,Wunderground v.1.15,2013-05-06 06:41:00,
2013-05-06 02:42:00,44.3,40.7,30.26,South,176,0.0,1.0,87,0.00,,,0.00,Wunderground v.1.15,2013-05-06 06:42:00,
2013-05-06 02:43:00,44.3,40.7,30.26,South,176,0.0,1.0,87,0.00,,,0.00,Wunderground v.1.15,2013-05-06 06:43:00,
2013-05-06 02:44:00,44.3,40.7,30.26,South,176,0.0,1.0,87,0.00,,,0.00,Wunderground v.1.15,2013-05-06 06:44:00,
2013-05-06 02:45:00,44.3,40.7,30.26,South,176,0.0,1.0,87,0.00,,,0.00,Wunderground v.1.15,2013-05-06 06:45:00,
2013-05-06 02:46:00,44.3,40.7,30.26,South,176,0.0,1.0,87,0.00,,,0.00,Wunderground v.1.15,2013-05-06 06:46:00,
2013-05-06 02:47:00,44.3,40.7,30.26,South,176,0.0,1.0,87,0.00,,,0.00,Wunderground v.1.15,2013-05-06 06:47:00,
2013-05-06 02:48:00,44.3,40.7,30.26,South,176,0.0,1.0,87,0.00,,,0.00,Wunderground v.1.15,2013-05-06 06:48:00,
2013-05-06 02:49:00,44.3,40.7,30.26,South,176,0.0,1.0,87,0.00,,,0.00,Wunderground v.1.15,2013-05-06 06:49:00,
2013-05-06 02:50:00,44.3,40.7,30.26,South,177,0.0,0.0,87,0.00,,,0.00,Wunderground v.1.15,2013-05-06 06:50:00,
2013-05-06 02:51:00,44.3,40.7,30.26,SSW,211,0.0,2.0,87,0.00,,,0.00,Wunderground v.1.15,2013-05-06 06:51:00,
2013-05-06 02:53:00,44.3,40.7,30.26,SSW,210,0.0,2.0,87,0.00,,,0.00,Wunderground v.1.15,2013-05-06 06:53:00,
2013-05-06 02:54:00,44.3,40.7,30.26,SSW,210,0.0,2.0,87,0.00,,,0.00,Wunderground v.1.15,2013-05-06 06:54:00,
2013-05-06 02:55:00,44.3,40.7,30.26,SSW,205,0.0,2.0,87,0.00,,,0.00,Wunderground v.1.15,2013-05-06 06:55:00,
2013-05-06 02:56:00,44.3,40.7,30.26,SE,141,2.0,2.0,87,0.00,,,0.00,Wunderground v.1.15,2013-05-06 06:56:00,
2013-05-06 02:58:00,44.3,40.7,30.26,SSE,156,0.0,2.0,87,0.00,,,0.00,Wunderground v.1.15,2013-05-06 06:58:00,
2013-05-06 02:59:00,44.3,40.7,30.26,SSE,157,0.0,2.0,87,0.00,,,0.00,Wunderground v.1.15,2013-05-06 06:59:00,
2013-05-06 03:01:00,44.3,40.7,30.26,SSW,212,2.0,3.0,87,0.00,,,0.00,Wunderground v.1.15,2013-05-06 07:01:00,
2013-05-06 03:03:00,44.2,40.6,30.26,SSE,163,0.0,3.0,87,0.00,,,0.00,Wunderground v.1.15,2013-05-06 07:03:00,
2013-05-06 03:04:00,44.2,40.6,30.26,SSE,163,0.0,3.0,87,0.00,,,0.00,Wunderground v.1.15,2013-05-06 07:04:00,
2013-05-06 03:05:00,44.2,40.6,30.26,SSE,164,0.0,3.0,87,0.00,,,0.00,Wunderground v.1.15,2013-05-06 07:05:00,
2013-05-06 03:06:00,44.2,40.6,30.26,SSE,163,0.0,3.0,87,0.00,,,0.00,Wunderground v.1.15,2013-05-06 07:06:00,
2013-05-06 03:08:00,44.1,40.5,30.26,SSE,163,0.0,3.0,87,0.00,,,0.00,Wunderground v.1.15,2013-05-06 07:08:00,
2013-05-06 03:09:00,44.1,40.5,30.26,SSE,163,0.0,3.0,87,0.00,,,0.00,Wunderground v.1.15,2013-05-06 07:09:00,
2013-05-06 03:10:00,44.1,40.5,30.26,SSE,163,0.0,0.0,87,0.00,,,0.00,Wunderground v.1.15,2013-05-06 07:10:00,
2013-05-06 03:11:00,44.1,40.5,30.26,SSE,164,0.0,0.0,87,0.00,,,0.00,Wunderground v.1.15,2013-05-06 07:11:00,
2013-05-06 03:12:00,44.1,40.5,30.26,SSE,163,0.0,0.0,87,0.00,,,0.00,Wunderground v.1.15,2013-05-06 07:12:00,
2013-05-06 03:14:00,44.1,40.5,30.26,SSE,163,0.0,0.0,87,0.00,,,0.00,Wunderground v.1.15,2013-05-06 07:14:00,
2013-05-06 03:15:00,44.1,40.5,30.26,SSE,163,0.0,0.0,87,0.00,,,0.00,Wunderground v.1.15,2013-05-06 07:15:00,
2013-05-06 03:16:00,44.1,40.5,30.26,SSE,163,0.0,0.0,87,0.00,,,0.00,Wunderground v.1.15,2013-05-06 07:16:00,
2013-05-06 03:17:00,44.1,40.5,30.26,SSE,163,0.0,0.0,87,0.00,,,0.00,Wunderground v.1.15,2013-05-06 07:17:00,
2013-05-06 03:19:00,44.0,40.4,30.26,SSE,163,0.0,0.0,87,0.00,,,0.00,Wunderground v.1.15,2013-05-06 07:19:00,
2013-05-06 03:21:00,44.1,40.5,30.26,East,85,0.0,1.0,87,0.00,,,0.00,Wunderground v.1.15,2013-05-06 07:21:00,
2013-05-06 03:22:00,44.0,40.4,30.26,East,84,0.0,1.0,87,0.00,,,0.00,Wunderground v.1.15,2013-05-06 07:22:00,
2013-05-06 03:23:00,44.0,40.4,30.26,East,83,0.0,1.0,87,0.00,,,0.00,Wunderground v.1.15,2013-05-06 07:23:00,
2013-05-06 03:24:00,44.0,40.4,30.26,East,83,0.0,1.0,87,0.00,,,0.00,Wunderground v.1.15,2013-05-06 07:24:00,
2013-05-06 03:25:00,44.0,40.4,30.26,East,84,0.0,1.0,87,0.00,,,0.00,Wunderground v.1.15,2013-05-06 07:25:00,
2013-05-06 03:26:00,44.0,40.4,30.26,East,84,0.0,1.0,87,0.00,,,0.00,Wunderground v.1.15,2013-05-06 07:26:00,
2013-05-06 03:27:00,44.0,40.4,30.26,WSW,249,0.0,1.0,87,0.00,,,0.00,Wunderground v.1.15,2013-05-06 07:27:00,
2013-05-06 03:28:00,44.0,40.4,30.26,WSW,248,0.0,1.0,87,0.00,,,0.00,Wunderground v.1.15,2013-05-06 07:28:00,
2013-05-06 03:29:00,44.0,40.4,30.26,WSW,249,0.0,1.0,87,0.00,,,0.00,Wunderground v.1.15,2013-05-06 07:29:00,
2013-05-06 03:30:00,44.0,40.4,30.26,WSW,250,0.0,0.0,87,0.00,,,0.00,Wunderground v.1.15,2013-05-06 07:30:00,
2013-05-06 03:31:00,44.0,40.4,30.26,West,266,0.0,1.0,87,0.00,,,0.00,Wunderground v.1.15,2013-05-06 07:31:00,
2013-05-06 03:32:00,44.0,40.4,30.26,West,267,0.0,1.0,87,0.00,,,0.00,Wunderground v.1.15,2013-05-06 07:32:00,
2013-05-06 03:34:00,44.0,40.4,30.26,North,3,0.0,1.0,87,0.00,,,0.00,Wunderground v.1.15,2013-05-06 07:34:00,
2013-05-06 03:35:00,44.0,40.4,30.26,North,3,0.0,1.0,87,0.00,,,0.00,Wunderground v.1.15,2013-05-06 07:35:00,
2013-05-06 03:37:00,43.9,40.3,30.26,North,5,0.0,1.0,87,0.00,,,0.00,Wunderground v.1.15,2013-05-06 07:37:00,
2013-05-06 03:39:00,43.9,40.3,30.26,North,9,0.0,1.0,87,0.00,,,0.00,Wunderground v.1.15,2013-05-06 07:39:00,
2013-05-06 03:40:00,43.9,40.3,30.25,North,9,0.0,1.0,87,0.00,,,0.00,Wunderground v.1.15,2013-05-06 07:40:00,
2013-05-06 03:42:00,43.9,40.3,30.26,North,9,0.0,0.0,87,0.00,,,0.00,Wunderground v.1.15,2013-05-06 07:42:00,
2013-05-06 03:44:00,43.9,40.3,30.26,North,9,0.0,0.0,87,0.00,,,0.00,Wunderground v.1.15,2013-05-06 07:44:00,
2013-05-06 03:45:00,43.9,40.3,30.26,North,8,0.0,0.0,87,0.00,,,0.00,Wunderground v.1.15,2013-05-06 07:45:00,
2013-05-06 03:47:00,43.9,40.3,30.26,North,9,0.0,0.0,87,0.00,,,0.00,Wunderground v.1.15,2013-05-06 07:47:00,
2013-05-06 03:48:00,43.9,40.3,30.26,North,9,0.0,0.0,87,0.00,,,0.00,Wunderground v.1.15,2013-05-06 07:48:00,
2013-05-06 03:49:00,43.9,40.3,30.26,North,9,0.0,0.0,87,0.00,,,0.00,Wunderground v.1.15,2013-05-06 07:49:00,
2013-05-06 03:50:00,43.9,40.3,30.26,North,9,0.0,0.0,87,0.00,,,0.00,Wunderground v.1.15,2013-05-06 07:50:00,
2013-05-06 03:52:00,43.9,40.3,30.26,North,9,0.0,0.0,87,0.00,,,0.00,Wunderground v.1.15,2013-05-06 07:52:00,
2013-05-06 03:53:00,43.9,40.6,30.26,North,9,0.0,0.0,88,0.00,,,0.00,Wunderground v.1.15,2013-05-06 07:53:00,
2013-05-06 03:54:00,43.9,40.6,30.26,North,9,0.0,0.0,88,0.00,,,0.00,Wunderground v.1.15,2013-05-06 07:54:00,
2013-05-06 03:55:00,43.9,40.6,30.26,North,9,0.0,0.0,88,0.00,,,0.00,Wunderground v.1.15,2013-05-06 07:55:00,
2013-05-06 03:56:00,43.9,40.6,30.26,North,9,0.0,0.0,88,0.00,,,0.00,Wunderground v.1.15,2013-05-06 07:56:00,
2013-05-06 03:57:00,43.9,40.6,30.26,North,9,0.0,0.0,88,0.00,,,0.00,Wunderground v.1.15,2013-05-06 07:57:00,
2013-05-06 03:59:00,43.9,40.6,30.26,North,9,0.0,0.0,88,0.00,,,0.00,Wunderground v.1.15,2013-05-06 07:59:00,
2013-05-06 04:00:00,44.0,40.7,30.26,ESE,113,0.0,1.0,88,0.00,,,0.00,Wunderground v.1.15,2013-05-06 08:00:00,
2013-05-06 04:01:00,44.0,40.7,30.26,ESE,113,0.0,1.0,88,0.00,,,0.00,Wunderground v.1.15,2013-05-06 08:01:00,
2013-05-06 04:02:00,44.0,40.7,30.26,ESE,113,0.0,1.0,88,0.00,,,0.00,Wunderground v.1.15,2013-05-06 08:02:00,
2013-05-06 04:04:00,44.0,40.7,30.26,ESE,113,0.0,1.0,88,0.00,,,0.00,Wunderground v.1.15,2013-05-06 08:04:00,
2013-05-06 04:05:00,44.0,40.7,30.26,ESE,113,0.0,1.0,88,0.00,,,0.00,Wunderground v.1.15,2013-05-06 08:05:00,
2013-05-06 04:06:00,44.0,40.7,30.26,ESE,113,0.0,1.0,88,0.00,,,0.00,Wunderground v.1.15,2013-05-06 08:06:00,
2013-05-06 04:07:00,44.0,40.7,30.26,SE,139,0.0,1.0,88,0.00,,,0.00,Wunderground v.1.15,2013-05-06 08:07:00,
2013-05-06 04:09:00,44.0,40.7,30.26,SE,139,0.0,1.0,88,0.00,,,0.00,Wunderground v.1.15,2013-05-06 08:09:00,
2013-05-06 04:10:00,44.0,40.7,30.26,SE,138,0.0,0.0,88,0.00,,,0.00,Wunderground v.1.15,2013-05-06 08:10:00,
2013-05-06 04:11:00,44.0,40.7,30.26,SE,140,0.0,0.0,88,0.00,,,0.00,Wunderground v.1.15,2013-05-06 08:11:00,
2013-05-06 04:13:00,44.0,40.7,30.26,SE,139,0.0,0.0,88,0.00,,,0.00,Wunderground v.1.15,2013-05-06 08:13:00,
2013-05-06 04:14:00,44.0,40.7,30.25,SE,139,0.0,0.0,88,0.00,,,0.00,Wunderground v.1.15,2013-05-06 08:14:00,
2013-05-06 04:15:00,44.1,40.8,30.25,SE,139,0.0,0.0,88,0.00,,,0.00,Wunderground v.1.15,2013-05-06 08:15:00,
2013-05-06 04:16:00,44.0,40.7,30.25,SE,138,0.0,0.0,88,0.00,,,0.00,Wunderground v.1.15,2013-05-06 08:16:00,
2013-05-06 04:18:00,44.0,40.7,30.25,SE,139,0.0,0.0,88,0.00,,,0.00,Wunderground v.1.15,2013-05-06 08:18:00,
2013-05-06 04:20:00,44.1,40.8,30.25,SE,138,0.0,0.0,88,0.00,,,0.00,Wunderground v.1.15,2013-05-06 08:20:00,
2013-05-06 04:21:00,44.1,40.8,30.25,SE,138,0.0,0.0,88,0.00,,,0.00,Wunderground v.1.15,2013-05-06 08:21:00,
2013-05-06 04:22:00,44.1,40.8,30.25,SSW,205,1.0,1.0,88,0.00,,,0.00,Wunderground v.1.15,2013-05-06 08:22:00,
2013-05-06 04:23:00,44.1,40.8,30.25,East,93,0.0,1.0,88,0.00,,,0.00,Wunderground v.1.15,2013-05-06 08:23:00,
2013-05-06 04:25:00,44.1,40.8,30.25,ENE,69,0.0,2.0,88,0.00,,,0.00,Wunderground v.1.15,2013-05-06 08:25:00,
2013-05-06 04:26:00,44.0,40.7,30.25,South,172,0.0,2.0,88,0.00,,,0.00,Wunderground v.1.15,2013-05-06 08:26:00,
2013-05-06 04:27:00,44.1,40.8,30.25,South,173,2.0,2.0,88,0.00,,,0.00,Wunderground v.1.15,2013-05-06 08:27:00,
2013-05-06 04:28:00,44.1,40.8,30.25,South,173,0.0,2.0,88,0.00,,,0.00,Wunderground v.1.15,2013-05-06 08:28:00,
2013-05-06 04:30:00,44.0,40.7,30.25,East,99,0.0,1.0,88,0.00,,,0.00,Wunderground v.1.15,2013-05-06 08:30:00,
2013-05-06 04:31:00,44.1,40.8,30.25,East,99,0.0,1.0,88,0.00,,,0.00,Wunderground v.1.15,2013-05-06 08:31:00,
2013-05-06 04:32:00,44.0,40.7,30.25,East,97,0.0,1.0,88,0.00,,,0.00,Wunderground v.1.15,2013-05-06 08:32:00,
2013-05-06 04:34:00,44.0,40.7,30.25,East,88,0.0,1.0,88,0.00,,,0.00,Wunderground v.1.15,2013-05-06 08:34:00,
2013-05-06 04:35:00,44.0,40.4,30.25,ENE,68,0.0,1.0,87,0.00,,,0.00,Wunderground v.1.15,2013-05-06 08:35:00,
2013-05-06 04:36:00,43.9,40.3,30.26,SW,214,2.0,2.0,87,0.00,,,0.00,Wunderground v.1.15,2013-05-06 08:36:00,
2013-05-06 04:37:00,43.9,40.3,30.25,NNE,33,1.0,2.0,87,0.00,,,0.00,Wunderground v.1.15,2013-05-06 08:37:00,
2013-05-06 04:38:00,43.9,40.3,30.26,SSE,167,0.0,2.0,87,0.00,,,0.00,Wunderground v.1.15,2013-05-06 08:38:00,
2013-05-06 04:39:00,43.9,40.3,30.26,SSE,167,0.0,2.0,87,0.00,,,0.00,Wunderground v.1.15,2013-05-06 08:39:00,
2013-05-06 04:40:00,43.9,40.3,30.26,SSE,160,1.0,2.0,87,0.00,,,0.00,Wunderground v.1.15,2013-05-06 08:40:00,
2013-05-06 04:42:00,43.9,40.3,30.26,SSW,203,0.0,2.0,87,0.00,,,0.00,Wunderground v.1.15,2013-05-06 08:42:00,
2013-05-06 04:43:00,43.9,40.3,30.26,SSW,202,0.0,2.0,87,0.00,,,0.00,Wunderground v.1.15,2013-05-06 08:43:00,
2013-05-06 04:44:00,43.9,40.3,30.26,SSE,160,0.0,2.0,87,0.00,,,0.00,Wunderground v.1.15,2013-05-06 08:44:00,
2013-05-06 04:45:00,43.9,40.3,30.26,SSE,160,0.0,2.0,87,0.00,,,0.00,Wunderground v.1.15,2013-05-06 08:45:00,
2013-05-06 04:47:00,43.9,40.3,30.26,SSE,160,0.0,2.0,87,0.00,,,0.00,Wunderground v.1.15,2013-05-06 08:47:00,
2013-05-06 04:48:00,43.9,40.3,30.26,SSE,160,0.0,2.0,87,0.00,,,0.00,Wunderground v.1.15,2013-05-06 08:48:00,
2013-05-06 04:49:00,43.9,40.3,30.26,SSE,160,0.0,2.0,87,0.00,,,0.00,Wunderground v.1.15,2013-05-06 08:49:00,
2013-05-06 04:50:00,43.9,40.3,30.26,SE,127,0.0,0.0,87,0.00,,,0.00,Wunderground v.1.15,2013-05-06 08:50:00,
2013-05-06 04:52:00,43.9,40.3,30.26,NE,44,0.0,0.0,87,0.00,,,0.00,Wunderground v.1.15,2013-05-06 08:52:00,
2013-05-06 04:53:00,43.9,40.3,30.26,NE,44,0.0,0.0,87,0.00,,,0.00,Wunderground v.1.15,2013-05-06 08:53:00,
2013-05-06 04:55:00,43.9,40.3,30.26,NE,44,0.0,0.0,87,0.00,,,0.00,Wunderground v.1.15,2013-05-06 08:55:00,
2013-05-06 04:57:00,43.9,40.3,30.26,NE,44,0.0,0.0,87,0.00,,,0.00,Wunderground v.1.15,2013-05-06 08:57:00,
2013-05-06 04:58:00,43.9,40.3,30.26,NE,44,0.0,0.0,87,0.00,,,0.00,Wunderground v.1.15,2013-05-06 08:58:00,
2013-05-06 04:59:00,43.9,40.3,30.26,NE,44,0.0,0.0,87,0.00,,,0.00,Wunderground v.1.15,2013-05-06 08:59:00,
2013-05-06 05:00:00,43.9,40.3,30.26,NE,44,0.0,0.0,87,0.00,,,0.00,Wunderground v.1.15,2013-05-06 09:00:00,
2013-05-06 05:02:00,43.9,40.3,30.26,NE,44,0.0,0.0,87,0.00,,,0.00,Wunderground v.1.15,2013-05-06 09:02:00,
2013-05-06 05:03:00,43.9,40.3,30.26,NE,44,0.0,0.0,87,0.00,,,0.00,Wunderground v.1.15,2013-05-06 09:03:00,
2013-05-06 05:04:00,43.9,40.6,30.25,NE,44,0.0,0.0,88,0.00,,,0.00,Wunderground v.1.15,2013-05-06 09:04:00,
2013-05-06 05:05:00,43.9,40.6,30.25,NE,44,0.0,0.0,88,0.00,,,0.00,Wunderground v.1.15,2013-05-06 09:05:00,
2013-05-06 05:06:00,43.8,40.5,30.25,NE,44,0.0,0.0,88,0.00,,,0.00,Wunderground v.1.15,2013-05-06 09:06:00,
2013-05-06 05:07:00,43.8,40.5,30.25,NE,44,0.0,0.0,88,0.00,,,0.00,Wunderground v.1.15,2013-05-06 09:07:00,
2013-05-06 05:08:00,43.8,40.5,30.26,NE,44,0.0,0.0,88,0.00,,,0.00,Wunderground v.1.15,2013-05-06 09:08:00,
2013-05-06 05:09:00,43.8,40.5,30.25,NE,47,0.0,0.0,88,0.00,,,0.00,Wunderground v.1.15,2013-05-06 09:09:00,
2013-05-06 05:10:00,43.8,40.5,30.26,NE,47,0.0,1.0,88,0.00,,,0.00,Wunderground v.1.15,2013-05-06 09:10:00,
2013-05-06 05:11:00,43.8,40.5,30.25,NNE,22,0.0,1.0,88,0.00,,,0.00,Wunderground v.1.15,2013-05-06 09:11:00,
2013-05-06 05:13:00,43.8,40.5,30.26,NE,38,0.0,2.0,88,0.00,,,0.00,Wunderground v.1.15,2013-05-06 09:13:00,
2013-05-06 05:15:00,43.8,40.5,30.26,NE,46,0.0,2.0,88,0.00,,,0.00,Wunderground v.1.15,2013-05-06 09:15:00,
2013-05-06 05:16:00,43.7,40.4,30.26,NE,47,0.0,2.0,88,0.00,,,0.00,Wunderground v.1.15,2013-05-06 09:16:00,
2013-05-06 05:18:00,43.7,40.4,30.26,NE,47,0.0,2.0,88,0.00,,,0.00,Wunderground v.1.15,2013-05-06 09:18:00,
2013-05-06 05:19:00,43.7,40.4,30.26,NE,46,0.0,2.0,88,0.00,,,0.00,Wunderground v.1.15,2013-05-06 09:19:00,
2013-05-06 05:20:00,43.7,40.4,30.26,NE,47,0.0,0.0,88,0.00,,,0.00,Wunderground v.1.15,2013-05-06 09:20:00,
2013-05-06 05:21:00,43.6,40.3,30.26,ENE,77,0.0,1.0,88,0.00,,,0.00,Wunderground v.1.15,2013-05-06 09:21:00,
2013-05-06 05:23:00,43.6,40.3,30.26,ENE,77,0.0,1.0,88,0.00,,,0.00,Wunderground v.1.15,2013-05-06 09:23:00,
2013-05-06 05:24:00,43.6,40.3,30.26,ENE,76,0.0,1.0,88,0.00,,,0.00,Wunderground v.1.15,2013-05-06 09:24:00,
2013-05-06 05:25:00,43.6,40.3,30.26,ESE,113,0.0,1.0,88,0.00,,,0.00,Wunderground v.1.15,2013-05-06 09:25:00,
2013-05-06 05:26:00,43.6,40.3,30.26,ESE,117,0.0,1.0,88,0.00,,,0.00,Wunderground v.1.15,2013-05-06 09:26:00,
2013-05-06 05:28:00,43.6,40.3,30.26,ESE,117,0.0,1.0,88,0.00,,,0.00,Wunderground v.1.15,2013-05-06 09:28:00,
2013-05-06 05:29:00,43.6,40.3,30.26,ESE,117,0.0,1.0,88,0.00,,,0.00,Wunderground v.1.15,2013-05-06 09:29:00,
2013-05-06 05:30:00,43.5,40.2,30.26,ESE,117,0.0,0.0,88,0.00,,,0.00,Wunderground v.1.15,2013-05-06 09:30:00,
2013-05-06 05:31:00,43.5,40.2,30.26,ESE,117,0.0,0.0,88,0.00,,,0.00,Wunderground v.1.15,2013-05-06 09:31:00,
2013-05-06 05:32:00,43.5,40.2,30.26,ESE,117,0.0,0.0,88,0.00,,,0.00,Wunderground v.1.15,2013-05-06 09:32:00,
2013-05-06 05:34:00,43.4,40.1,30.26,ESE,117,0.0,0.0,88,0.00,,,0.00,Wunderground v.1.15,2013-05-06 09:34:00,
2013-05-06 05:36:00,43.3,40.0,30.26,SW,226,0.0,1.0,88,0.00,,,0.00,Wunderground v.1.15,2013-05-06 09:36:00,
2013-05-06 05:37:00,43.3,40.0,30.26,SW,226,0.0,1.0,88,0.00,,,0.00,Wunderground v.1.15,2013-05-06 09:37:00,
2013-05-06 05:39:00,43.3,40.0,30.26,SW,227,0.0,1.0,88,0.00,,,0.00,Wunderground v.1.15,2013-05-06 09:39:00,
2013-05-06 05:41:00,43.3,40.0,30.26,SW,227,0.0,0.0,88,0.00,,,0.00,Wunderground v.1.15,2013-05-06 09:41:00,
2013-05-06 05:42:00,43.3,40.0,30.26,SW,226,0.0,0.0,88,0.00,,,0.00,Wunderground v.1.15,2013-05-06 09:42:00,
2013-05-06 05:44:00,43.2,39.9,30.26,SW,226,0.0,0.0,88,0.00,,,0.00,Wunderground v.1.15,2013-05-06 09:44:00,
2013-05-06 05:46:00,43.2,39.9,30.26,SW,226,0.0,0.0,88,0.00,,,0.00,Wunderground v.1.15,2013-05-06 09:46:00,
2013-05-06 05:47:00,43.1,39.8,30.26,SW,226,0.0,0.0,88,0.00,,,0.00,Wunderground v.1.15,2013-05-06 09:47:00,
2013-05-06 05:49:00,43.1,39.8,30.26,SW,224,0.0,0.0,88,0.00,,,0.00,Wunderground v.1.15,2013-05-06 09:49:00,
2013-05-06 05:51:00,43.0,39.7,30.26,SW,224,0.0,0.0,88,0.00,,,0.00,Wunderground v.1.15,2013-05-06 09:51:00,
2013-05-06 05:53:00,42.9,39.6,30.26,SW,224,0.0,1.0,88,0.00,,,0.00,Wunderground v.1.15,2013-05-06 09:53:00,
2013-05-06 05:54:00,42.9,39.6,30.26,SW,224,0.0,1.0,88,0.00,,,0.00,Wunderground v.1.15,2013-05-06 09:54:00,
2013-05-06 05:56:00,42.9,39.6,30.26,SW,224,0.0,1.0,88,0.00,,,0.00,Wunderground v.1.15,2013-05-06 09:56:00,
2013-05-06 05:58:00,42.8,39.5,30.26,SW,224,0.0,1.0,88,0.00,,,0.00,Wunderground v.1.15,2013-05-06 09:58:00,
2013-05-06 06:00:00,42.7,39.4,30.26,SW,224,0.0,1.0,88,0.00,,,0.00,Wunderground v.1.15,2013-05-06 10:00:00,
2013-05-06 06:02:00,42.7,39.7,30.27,SSW,197,0.0,1.0,89,0.00,,,0.00,Wunderground v.1.15,2013-05-06 10:02:00,
2013-05-06 06:03:00,42.7,39.7,30.27,South,190,0.0,1.0,89,0.00,,,0.00,Wunderground v.1.15,2013-05-06 10:03:00,
2013-05-06 06:05:00,42.7,39.7,30.27,South,190,0.0,1.0,89,0.00,,,0.00,Wunderground v.1.15,2013-05-06 10:05:00,
2013-05-06 06:07:00,42.7,39.7,30.27,South,190,0.0,1.0,89,0.00,,,0.00,Wunderground v.1.15,2013-05-06 10:07:00,
2013-05-06 06:08:00,42.7,39.7,30.27,South,190,0.0,1.0,89,0.00,,,0.00,Wunderground v.1.15,2013-05-06 10:08:00,
2013-05-06 06:10:00,42.7,39.7,30.27,South,191,0.0,0.0,89,0.00,,,0.00,Wunderground v.1.15,2013-05-06 10:10:00,
2013-05-06 06:12:00,42.7,39.7,30.27,South,190,0.0,0.0,89,0.00,,,0.00,Wunderground v.1.15,2013-05-06 10:12:00,
2013-05-06 06:13:00,42.7,39.7,30.27,South,190,0.0,0.0,89,0.00,,,0.00,Wunderground v.1.15,2013-05-06 10:13:00,
2013-05-06 06:15:00,42.7,39.7,30.27,South,190,0.0,0.0,89,0.00,,,0.00,Wunderground v.1.15,2013-05-06 10:15:00,
2013-05-06 06:16:00,42.7,39.7,30.27,South,190,0.0,0.0,89,0.00,,,0.00,Wunderground v.1.15,2013-05-06 10:16:00,
2013-05-06 06:17:00,42.7,39.7,30.27,South,190,0.0,0.0,89,0.00,,,0.00,Wunderground v.1.15,2013-05-06 10:17:00,
2013-05-06 06:19:00,42.7,39.7,30.27,South,190,0.0,0.0,89,0.00,,,0.00,Wunderground v.1.15,2013-05-06 10:19:00,
2013-05-06 06:20:00,42.7,39.7,30.27,SE,129,1.0,1.0,89,0.00,,,0.00,Wunderground v.1.15,2013-05-06 10:20:00,
2013-05-06 06:21:00,42.8,39.8,30.27,SE,129,0.0,1.0,89,0.00,,,0.00,Wunderground v.1.15,2013-05-06 10:21:00,
2013-05-06 06:22:00,42.8,39.8,30.27,SE,128,0.0,1.0,89,0.00,,,0.00,Wunderground v.1.15,2013-05-06 10:22:00,
2013-05-06 06:23:00,42.8,39.8,30.27,SE,128,0.0,1.0,89,0.00,,,0.00,Wunderground v.1.15,2013-05-06 10:23:00,
2013-05-06 06:24:00,42.9,39.9,30.27,SE,129,0.0,1.0,89,0.00,,,0.00,Wunderground v.1.15,2013-05-06 10:24:00,
2013-05-06 06:25:00,42.9,39.9,30.27,SE,128,0.0,1.0,89,0.00,,,0.00,Wunderground v.1.15,2013-05-06 10:25:00,
2013-05-06 06:26:00,42.9,39.9,30.28,SE,128,0.0,1.0,89,0.00,,,0.00,Wunderground v.1.15,2013-05-06 10:26:00,
2013-05-06 06:27:00,42.9,39.9,30.28,SE,128,0.0,1.0,89,0.00,,,0.00,Wunderground v.1.15,2013-05-06 10:27:00,
2013-05-06 06:28:00,43.0,40.0,30.28,SSE,158,0.0,1.0,89,0.00,,,0.00,Wunderground v.1.15,2013-05-06 10:28:00,
2013-05-06 06:29:00,43.0,40.0,30.28,SSE,158,0.0,1.0,89,0.00,,,0.00,Wunderground v.1.15,2013-05-06 10:29:00,
2013-05-06 06:30:00,43.1,40.1,30.28,SW,229,0.0,0.0,89,0.00,,,0.00,Wunderground v.1.15,2013-05-06 10:30:00,
2013-05-06 06:31:00,43.1,40.1,30.28,SW,232,1.0,1.0,89,0.00,,,0.00,Wunderground v.1.15,2013-05-06 10:31:00,
2013-05-06 06:32:00,43.1,40.1,30.28,WSW,240,0.0,1.0,89,0.00,,,0.00,Wunderground v.1.15,2013-05-06 10:32:00,
2013-05-06 06:33:00,43.2,40.2,30.28,WSW,241,0.0,1.0,89,0.00,,,0.00,Wunderground v.1.15,2013-05-06 10:33:00,
2013-05-06 06:35:00,43.2,40.2,30.28,SSW,204,2.0,2.0,89,0.00,,,0.00,Wunderground v.1.15,2013-05-06 10:35:00,
2013-05-06 06:36:00,43.3,40.3,30.28,SSW,207,1.0,2.0,89,0.00,,,0.00,Wunderground v.1.15,2013-05-06 10:36:00,
2013-05-06 06:37:00,43.3,40.3,30.28,SSW,207,0.0,2.0,89,0.00,,,0.00,Wunderground v.1.15,2013-05-06 10:37:00,
2013-05-06 06:38:00,43.4,40.4,30.29,SSW,207,0.0,2.0,89,0.00,,,0.00,Wunderground v.1.15,2013-05-06 10:38:00,
2013-05-06 06:40:00,43.5,40.5,30.29,SW,219,0.0,0.0,89,0.00,,,0.00,Wunderground v.1.15,2013-05-06 10:40:00,
2013-05-06 06:41:00,43.5,40.5,30.29,SW,219,0.0,0.0,89,0.00,,,0.00,Wunderground v.1.15,2013-05-06 10:41:00,
2013-05-06 06:43:00,43.6,40.6,30.29,SW,232,0.0,0.0,89,0.00,,,0.00,Wunderground v.1.15,2013-05-06 10:43:00,
2013-05-06 06:45:00,43.7,40.7,30.29,SSW,211,1.0,1.0,89,0.00,,,0.00,Wunderground v.1.15,2013-05-06 10:45:00,
2013-05-06 06:46:00,43.7,40.7,30.29,SSE,158,1.0,1.0,89,0.00,,,0.00,Wunderground v.1.15,2013-05-06 10:46:00,
2013-05-06 06:48:00,43.8,40.8,30.29,SSE,160,1.0,2.0,89,0.00,,,0.00,Wunderground v.1.15,2013-05-06 10:48:00,
2013-05-06 06:49:00,43.9,40.9,30.29,SSE,160,0.0,2.0,89,0.00,,,0.00,Wunderground v.1.15,2013-05-06 10:49:00,
2013-05-06 06:50:00,43.9,40.9,30.29,SW,221,1.0,1.0,89,0.00,,,0.00,Wunderground v.1.15,2013-05-06 10:50:00,
2013-05-06 06:51:00,43.9,40.9,30.29,SW,214,0.0,1.0,89,0.00,,,0.00,Wunderground v.1.15,2013-05-06 10:51:00,
2013-05-06 06:53:00,44.0,40.7,30.29,SSW,210,1.0,1.0,88,0.00,,,0.00,Wunderground v.1.15,2013-05-06 10:53:00,
2013-05-06 06:54:00,44.1,40.8,30.29,SSW,207,1.0,1.0,88,0.00,,,0.00,Wunderground v.1.15,2013-05-06 10:54:00,
2013-05-06 06:56:00,44.1,40.8,30.29,SSW,208,0.0,3.0,88,0.00,,,0.00,Wunderground v.1.15,2013-05-06 10:56:00,
2013-05-06 06:58:00,44.2,40.9,30.29,SSW,212,1.0,3.0,88,0.00,,,0.00,Wunderground v.1.15,2013-05-06 10:58:00,
2013-05-06 06:59:00,44.2,40.9,30.29,SW,215,0.0,3.0,88,0.00,,,0.00,Wunderground v.1.15,2013-05-06 10:59:00,
2013-05-06 07:01:00,44.3,41.0,30.29,SSW,207,1.0,2.0,88,0.00,,,0.00,Wunderground v.1.15,2013-05-06 11:01:00,
2013-05-06 07:02:00,44.3,41.0,30.29,SSW,207,1.0,2.0,88,0.00,,,0.00,Wunderground v.1.15,2013-05-06 11:02:00,
2013-05-06 07:03:00,44.5,41.2,30.29,SSW,207,0.0,2.0,88,0.00,,,0.00,Wunderground v.1.15,2013-05-06 11:03:00,
2013-05-06 07:04:00,44.5,41.2,30.29,SSW,207,0.0,2.0,88,0.00,,,0.00,Wunderground v.1.15,2013-05-06 11:04:00,
2013-05-06 07:06:00,44.6,41.3,30.29,ESE,106,0.0,2.0,88,0.00,,,0.00,Wunderground v.1.15,2013-05-06 11:06:00,
2013-05-06 07:07:00,44.6,41.3,30.29,ESE,105,0.0,2.0,88,0.00,,,0.00,Wunderground v.1.15,2013-05-06 11:07:00,
2013-05-06 07:09:00,44.7,41.1,30.29,East,101,0.0,2.0,87,0.00,,,0.00,Wunderground v.1.15,2013-05-06 11:09:00,
2013-05-06 07:11:00,44.7,41.1,30.29,SSW,193,0.0,1.0,87,0.00,,,0.00,Wunderground v.1.15,2013-05-06 11:11:00,
2013-05-06 07:12:00,44.7,41.1,30.29,SW,227,1.0,1.0,87,0.00,,,0.00,Wunderground v.1.15,2013-05-06 11:12:00,
2013-05-06 07:14:00,44.8,41.2,30.29,WSW,238,0.0,1.0,87,0.00,,,0.00,Wunderground v.1.15,2013-05-06 11:14:00,
2013-05-06 07:15:00,44.8,41.2,30.29,WSW,238,0.0,1.0,87,0.00,,,0.00,Wunderground v.1.15,2013-05-06 11:15:00,
2013-05-06 07:16:00,44.8,41.2,30.29,SW,214,1.0,4.0,87,0.00,,,0.00,Wunderground v.1.15,2013-05-06 11:16:00,
2013-05-06 07:17:00,44.9,41.3,30.30,West,271,0.0,4.0,87,0.00,,,0.00,Wunderground v.1.15,2013-05-06 11:17:00,
2013-05-06 07:19:00,44.9,41.3,30.29,SW,236,0.0,4.0,87,0.00,,,0.00,Wunderground v.1.15,2013-05-06 11:19:00,
2013-05-06 07:20:00,44.9,41.3,30.29,SW,233,0.0,0.0,87,0.00,,,0.00,Wunderground v.1.15,2013-05-06 11:20:00,
2013-05-06 07:21:00,45.0,41.4,30.29,SSE,155,0.0,0.0,87,0.00,,,0.00,Wunderground v.1.15,2013-05-06 11:21:00,
2013-05-06 07:22:00,45.0,41.4,30.30,SE,143,0.0,1.0,87,0.00,,,0.00,Wunderground v.1.15,2013-05-06 11:22:00,
2013-05-06 07:24:00,45.1,41.5,30.29,SSW,207,0.0,1.0,87,0.00,,,0.00,Wunderground v.1.15,2013-05-06 11:24:00,
2013-05-06 07:25:00,45.1,41.5,30.30,SSW,207,0.0,1.0,87,0.00,,,0.00,Wunderground v.1.15,2013-05-06 11:25:00,
2013-05-06 07:27:00,45.2,41.6,30.29,SW,226,1.0,3.0,87,0.00,,,0.00,Wunderground v.1.15,2013-05-06 11:27:00,
2013-05-06 07:28:00,45.2,41.6,30.30,SSW,193,1.0,3.0,87,0.00,,,0.00,Wunderground v.1.15,2013-05-06 11:28:00,
2013-05-06 07:30:00,45.3,41.4,30.30,SW,226,0.0,1.0,86,0.00,,,0.00,Wunderground v.1.15,2013-05-06 11:30:00,
2013-05-06 07:32:00,45.3,41.4,30.30,SW,225,0.0,1.0,86,0.00,,,0.00,Wunderground v.1.15,2013-05-06 11:32:00,
2013-05-06 07:33:00,45.4,41.5,30.30,SW,226,0.0,1.0,86,0.00,,,0.00,Wunderground v.1.15,2013-05-06 11:33:00,
2013-05-06 07:35:00,45.4,41.5,30.30,SSW,205,1.0,1.0,86,0.00,,,0.00,Wunderground v.1.15,2013-05-06 11:35:00,
2013-05-06 07:36:00,45.5,41.6,30.30,WSW,255,1.0,1.0,86,0.00,,,0.00,Wunderground v.1.15,2013-05-06 11:36:00,
2013-05-06 07:37:00,45.5,41.6,30.30,SW,224,0.0,1.0,86,0.00,,,0.00,Wunderground v.1.15,2013-05-06 11:37:00,
2013-05-06 07:38:00,45.5,41.6,30.30,WSW,242,0.0,1.0,86,0.00,,,0.00,Wunderground v.1.15,2013-05-06 11:38:00,
2013-05-06 07:40:00,45.6,41.7,30.30,South,183,1.0,1.0,86,0.00,,,0.00,Wunderground v.1.15,2013-05-06 11:40:00,
2013-05-06 07:41:00,45.6,41.4,30.30,WSW,257,0.0,1.0,85,0.00,,,0.00,Wunderground v.1.15,2013-05-06 11:41:00,
2013-05-06 07:42:00,45.6,41.4,30.30,WSW,256,0.0,1.0,85,0.00,,,0.00,Wunderground v.1.15,2013-05-06 11:42:00,
2013-05-06 07:43:00,45.6,41.4,30.30,WSW,255,0.0,1.0,85,0.00,,,0.00,Wunderground v.1.15,2013-05-06 11:43:00,
2013-05-06 07:44:00,45.6,41.4,30.30,WSW,256,0.0,1.0,85,0.00,,,0.00,Wunderground v.1.15,2013-05-06 11:44:00,
2013-05-06 07:45:00,45.7,41.4,30.30,WSW,256,0.0,1.0,85,0.00,,,0.00,Wunderground v.1.15,2013-05-06 11:45:00,
2013-05-06 07:46:00,45.7,41.8,30.30,WSW,256,0.0,1.0,86,0.00,,,0.00,Wunderground v.1.15,2013-05-06 11:46:00,
2013-05-06 07:47:00,45.7,41.4,30.30,WSW,256,0.0,1.0,85,0.00,,,0.00,Wunderground v.1.15,2013-05-06 11:47:00,
2013-05-06 07:48:00,45.8,41.5,30.30,WSW,256,0.0,1.0,85,0.00,,,0.00,Wunderground v.1.15,2013-05-06 11:48:00,
2013-05-06 07:49:00,45.8,41.5,30.30,WSW,255,0.0,1.0,85,0.00,,,0.00,Wunderground v.1.15,2013-05-06 11:49:00,
2013-05-06 07:50:00,45.9,41.6,30.29,WSW,240,0.0,2.0,85,0.00,,,0.00,Wunderground v.1.15,2013-05-06 11:50:00,
2013-05-06 07:52:00,46.0,41.7,30.29,West,261,0.0,2.0,85,0.00,,,0.00,Wunderground v.1.15,2013-05-06 11:52:00,
2013-05-06 07:53:00,46.0,41.7,30.30,West,260,0.0,2.0,85,0.00,,,0.00,Wunderground v.1.15,2013-05-06 11:53:00,
2013-05-06 07:54:00,46.1,41.8,30.30,SSW,203,1.0,2.0,85,0.00,,,0.00,Wunderground v.1.15,2013-05-06 11:54:00,
2013-05-06 07:55:00,46.1,41.5,30.29,SSW,200,3.0,6.0,84,0.00,,,0.00,Wunderground v.1.15,2013-05-06 11:55:00,
2013-05-06 07:57:00,46.1,41.5,30.29,SSW,205,2.0,6.0,84,0.00,,,0.00,Wunderground v.1.15,2013-05-06 11:57:00,
2013-05-06 07:58:00,46.0,41.4,30.29,SW,218,4.0,6.0,84,0.00,,,0.00,Wunderground v.1.15,2013-05-06 11:58:00,
2013-05-06 07:59:00,46.0,41.1,30.29,South,176,1.0,6.0,83,0.00,,,0.00,Wunderground v.1.15,2013-05-06 11:59:00,
2013-05-06 08:00:00,45.9,41.3,30.30,WSW,243,1.0,4.0,84,0.00,,,0.00,Wunderground v.1.15,2013-05-06 12:00:00,
2013-05-06 08:02:00,45.9,41.3,30.30,SSW,198,1.0,4.0,84,0.00,,,0.00,Wunderground v.1.15,2013-05-06 12:02:00,
2013-05-06 08:03:00,45.9,41.6,30.29,South,186,4.0,4.0,85,0.00,,,0.00,Wunderground v.1.15,2013-05-06 12:03:00,
2013-05-06 08:04:00,45.9,41.3,30.30,SSE,159,3.0,4.0,84,0.00,,,0.00,Wunderground v.1.15,2013-05-06 12:04:00,
2013-05-06 08:05:00,45.9,41.3,30.30,South,172,1.0,4.0,84,0.00,,,0.00,Wunderground v.1.15,2013-05-06 12:05:00,
2013-05-06 08:07:00,45.9,41.3,30.30,SSE,159,0.0,4.0,84,0.00,,,0.00,Wunderground v.1.15,2013-05-06 12:07:00,
2013-05-06 08:08:00,46.0,41.4,30.30,SSE,160,0.0,4.0,84,0.00,,,0.00,Wunderground v.1.15,2013-05-06 12:08:00,
2013-05-06 08:09:00,46.0,41.4,30.29,West,271,0.0,4.0,84,0.00,,,0.00,Wunderground v.1.15,2013-05-06 12:09:00,
2013-05-06 08:12:00,46.2,41.3,30.30,SSW,212,1.0,2.0,83,0.00,,,0.00,Wunderground v.1.15,2013-05-06 12:12:00,
2013-05-06 08:13:00,46.3,41.7,30.30,SW,219,0.0,2.0,84,0.00,,,0.00,Wunderground v.1.15,2013-05-06 12:13:00,
2013-05-06 08:14:00,46.4,41.8,30.30,WSW,245,0.0,2.0,84,0.00,,,0.00,Wunderground v.1.15,2013-05-06 12:14:00,
2013-05-06 08:17:00,46.7,41.8,30.29,SW,224,0.0,2.0,83,0.00,,,0.00,Wunderground v.1.15,2013-05-06 12:17:00,
2013-05-06 08:18:00,46.8,41.9,30.29,North,353,2.0,2.0,83,0.00,,,0.00,Wunderground v.1.15,2013-05-06 12:18:00,
2013-05-06 08:19:00,46.9,42.0,30.29,North,354,2.0,2.0,83,0.00,,,0.00,Wunderground v.1.15,2013-05-06 12:19:00,
2013-05-06 08:22:00,46.8,41.9,30.29,NNW,331,0.0,2.0,83,0.00,,,0.00,Wunderground v.1.15,2013-05-06 12:22:00,
2013-05-06 08:23:00,46.8,41.9,30.29,NNW,340,0.0,2.0,83,0.00,,,0.00,Wunderground v.1.15,2013-05-06 12:23:00,
2013-05-06 08:24:00,46.7,41.8,30.29,North,8,0.0,2.0,83,0.00,,,0.00,Wunderground v.1.15,2013-05-06 12:24:00,
2013-05-06 08:25:00,46.7,41.8,30.29,North,6,0.0,2.0,83,0.00,,,0.00,Wunderground v.1.15,2013-05-06 12:25:00,
2013-05-06 08:27:00,46.7,41.8,30.29,NNW,331,0.0,2.0,83,0.00,,,0.00,Wunderground v.1.15,2013-05-06 12:27:00,
2013-05-06 08:28:00,46.7,41.8,30.29,NNW,332,0.0,2.0,83,0.00,,,0.00,Wunderground v.1.15,2013-05-06 12:28:00,
2013-05-06 08:29:00,46.7,41.8,30.29,NNW,330,0.0,2.0,83,0.00,,,0.00,Wunderground v.1.15,2013-05-06 12:29:00,
2013-05-06 08:30:00,46.7,41.8,30.29,NNW,330,0.0,2.0,83,0.00,,,0.00,Wunderground v.1.15,2013-05-06 12:30:00,
2013-05-06 08:32:00,46.7,41.8,30.29,North,352,0.0,0.0,83,0.00,,,0.00,Wunderground v.1.15,2013-05-06 12:32:00,
2013-05-06 08:33:00,46.7,41.8,30.29,ENE,72,0.0,1.0,83,0.00,,,0.00,Wunderground v.1.15,2013-05-06 12:33:00,
2013-05-06 08:34:00,46.7,41.8,30.29,NE,55,0.0,2.0,83,0.00,,,0.00,Wunderground v.1.15,2013-05-06 12:34:00,
2013-05-06 08:35:00,46.8,41.9,30.29,ENE,58,0.0,2.0,83,0.00,,,0.00,Wunderground v.1.15,2013-05-06 12:35:00,
2013-05-06 08:36:00,46.8,41.9,30.30,ENE,58,0.0,2.0,83,0.00,,,0.00,Wunderground v.1.15,2013-05-06 12:36:00,
2013-05-06 08:37:00,46.8,41.9,30.30,ENE,72,1.0,2.0,83,0.00,,,0.00,Wunderground v.1.15,2013-05-06 12:37:00,
2013-05-06 08:38:00,46.8,41.9,30.29,ENE,72,1.0,2.0,83,0.00,,,0.00,Wunderground v.1.15,2013-05-06 12:38:00,
2013-05-06 08:40:00,46.9,42.0,30.29,NE,54,1.0,1.0,83,0.00,,,0.00,Wunderground v.1.15,2013-05-06 12:40:00,
2013-05-06 08:41:00,46.9,42.0,30.29,NE,51,0.0,1.0,83,0.00,,,0.00,Wunderground v.1.15,2013-05-06 12:41:00,
2013-05-06 08:42:00,46.9,42.0,30.29,NNW,339,0.0,1.0,83,0.00,,,0.00,Wunderground v.1.15,2013-05-06 12:42:00,
2013-05-06 08:44:00,47.1,42.2,30.29,NNE,12,1.0,2.0,83,0.00,,,0.00,Wunderground v.1.15,2013-05-06 12:44:00,
2013-05-06 08:45:00,47.2,42.3,30.29,North,354,0.0,2.0,83,0.00,,,0.00,Wunderground v.1.15,2013-05-06 12:45:00,
2013-05-06 08:46:00,47.3,42.1,30.29,NNW,330,0.0,2.0,82,0.00,,,0.00,Wunderground v.1.15,2013-05-06 12:46:00,
2013-05-06 08:47:00,47.5,42.6,30.29,NW,310,0.0,2.0,83,0.00,,,0.00,Wunderground v.1.15,2013-05-06 12:47:00,
2013-05-06 08:49:00,47.7,42.8,30.29,North,6,0.0,2.0,83,0.00,,,0.00,Wunderground v.1.15,2013-05-06 12:49:00,
2013-05-06 08:50:00,47.8,42.9,30.29,NNE,19,1.0,3.0,83,0.00,,,0.00,Wunderground v.1.15,2013-05-06 12:50:00,
2013-05-06 08:51:00,47.9,42.7,30.29,NW,311,0.0,3.0,82,0.00,,,0.00,Wunderground v.1.15,2013-05-06 12:51:00,
2013-05-06 08:53:00,48.1,42.5,30.29,NW,319,0.0,3.0,81,0.00,,,0.00,Wunderground v.1.15,2013-05-06 12:53:00,
2013-05-06 08:54:00,48.3,42.7,30.29,NE,56,0.0,3.0,81,0.00,,,0.00,Wunderground v.1.15,2013-05-06 12:54:00,
2013-05-06 08:55:00,48.3,42.7,30.29,ENE,70,1.0,3.0,81,0.00,,,0.00,Wunderground v.1.15,2013-05-06 12:55:00,
2013-05-06 08:56:00,48.3,42.7,30.29,East,89,1.0,3.0,81,0.00,,,0.00,Wunderground v.1.15,2013-05-06 12:56:00,
2013-05-06 08:58:00,48.5,42.6,30.29,NE,37,0.0,3.0,80,0.00,,,0.00,Wunderground v.1.15,2013-05-06 12:58:00,
2013-05-06 08:59:00,48.5,42.6,30.29,North,349,3.0,3.0,80,0.00,,,0.00,Wunderground v.1.15,2013-05-06 12:59:00,
2013-05-06 09:00:00,48.5,42.6,30.29,NNW,343,3.0,4.0,80,0.00,,,0.00,Wunderground v.1.15,2013-05-06 13:00:00,
2013-05-06 09:01:00,48.7,42.8,30.29,NNW,345,4.0,4.0,80,0.00,,,0.00,Wunderground v.1.15,2013-05-06 13:01:00,
2013-05-06 09:04:00,49.0,42.8,30.29,North,6,1.0,4.0,79,0.00,,,0.00,Wunderground v.1.15,2013-05-06 13:04:00,
2013-05-06 09:05:00,49.2,43.0,30.30,North,349,2.0,4.0,79,0.00,,,0.00,Wunderground v.1.15,2013-05-06 13:05:00,
2013-05-06 09:07:00,49.3,42.7,30.30,North,354,1.0,4.0,78,0.00,,,0.00,Wunderground v.1.15,2013-05-06 13:07:00,
2013-05-06 09:09:00,49.5,43.3,30.30,North,4,1.0,4.0,79,0.00,,,0.00,Wunderground v.1.15,2013-05-06 13:09:00,
2013-05-06 09:10:00,49.7,43.1,30.30,North,1,1.0,2.0,78,0.00,,,0.00,Wunderground v.1.15,2013-05-06 13:10:00,
2013-05-06 09:12:00,49.8,42.9,30.30,NNW,345,0.0,2.0,77,0.00,,,0.00,Wunderground v.1.15,2013-05-06 13:12:00,
2013-05-06 09:14:00,50.1,43.5,30.30,South,173,1.0,2.0,78,0.00,,,0.00,Wunderground v.1.15,2013-05-06 13:14:00,
2013-05-06 09:15:00,50.2,43.6,30.30,South,189,1.0,2.0,78,0.00,,,0.00,Wunderground v.1.15,2013-05-06 13:15:00,
2013-05-06 09:17:00,50.7,43.8,30.30,North,349,0.0,2.0,77,0.00,,,0.00,Wunderground v.1.15,2013-05-06 13:17:00,
2013-05-06 09:19:00,51.1,43.4,30.30,NNW,330,1.0,4.0,75,0.00,,,0.00,Wunderground v.1.15,2013-05-06 13:19:00,
2013-05-06 09:20:00,51.1,43.4,30.30,NW,323,1.0,4.0,75,0.00,,,0.00,Wunderground v.1.15,2013-05-06 13:20:00,
2013-05-06 09:21:00,51.2,43.5,30.30,WSW,256,0.0,1.0,75,0.00,,,0.00,Wunderground v.1.15,2013-05-06 13:21:00,
2013-05-06 09:22:00,51.3,43.6,30.30,North,350,2.0,2.0,75,0.00,,,0.00,Wunderground v.1.15,2013-05-06 13:22:00,
2013-05-06 09:25:00,51.5,43.5,30.30,NNW,339,1.0,3.0,74,0.00,,,0.00,Wunderground v.1.15,2013-05-06 13:25:00,
2013-05-06 09:26:00,51.6,43.6,30.30,NNW,342,0.0,3.0,74,0.00,,,0.00,Wunderground v.1.15,2013-05-06 13:26:00,
2013-05-06 09:28:00,51.7,43.3,30.30,NW,311,0.0,3.0,73,0.00,,,0.00,Wunderground v.1.15,2013-05-06 13:28:00,
2013-05-06 09:30:00,52.0,43.3,30.30,North,349,1.0,2.0,72,0.00,,,0.00,Wunderground v.1.15,2013-05-06 13:30:00,
2013-05-06 09:31:00,52.1,43.0,30.30,North,357,0.0,2.0,71,0.00,,,0.00,Wunderground v.1.15,2013-05-06 13:31:00,
2013-05-06 09:33:00,52.3,42.8,30.30,NNW,342,1.0,2.0,70,0.00,,,0.00,Wunderground v.1.15,2013-05-06 13:33:00,
2013-05-06 09:35:00,52.6,43.8,30.30,NW,326,2.0,2.0,72,0.00,,,0.00,Wunderground v.1.15,2013-05-06 13:35:00,
2013-05-06 09:36:00,52.7,43.6,30.30,NW,304,0.0,2.0,71,0.00,,,0.00,Wunderground v.1.15,2013-05-06 13:36:00,
2013-05-06 09:38:00,53.0,43.8,30.30,North,354,2.0,3.0,71,0.00,,,0.00,Wunderground v.1.15,2013-05-06 13:38:00,
2013-05-06 09:39:00,53.0,43.8,30.30,North,354,1.0,3.0,71,0.00,,,0.00,Wunderground v.1.15,2013-05-06 13:39:00,
2013-05-06 09:40:00,53.1,43.2,30.30,NNE,22,0.0,2.0,69,0.00,,,0.00,Wunderground v.1.15,2013-05-06 13:40:00,
2013-05-06 09:41:00,53.1,43.2,30.29,North,358,1.0,2.0,69,0.00,,,0.00,Wunderground v.1.15,2013-05-06 13:41:00,
2013-05-06 09:44:00,53.2,42.9,30.30,NNE,15,1.0,2.0,68,0.00,,,0.00,Wunderground v.1.15,2013-05-06 13:44:00,
2013-05-06 09:46:00,53.3,43.0,30.29,North,1,1.0,2.0,68,0.00,,,0.00,Wunderground v.1.15,2013-05-06 13:46:00,
2013-05-06 09:49:00,53.6,43.7,30.29,WNW,303,0.0,2.0,69,0.00,,,0.00,Wunderground v.1.15,2013-05-06 13:49:00,
2013-05-06 09:51:00,54.0,44.1,30.29,WNW,288,1.0,1.0,69,0.00,,,0.00,Wunderground v.1.15,2013-05-06 13:51:00,
2013-05-06 09:52:00,54.2,43.9,30.29,West,277,0.0,1.0,68,0.00,,,0.00,Wunderground v.1.15,2013-05-06 13:52:00,
2013-05-06 09:54:00,54.7,44.3,30.29,WSW,240,1.0,2.0,68,0.00,,,0.00,Wunderground v.1.15,2013-05-06 13:54:00,
2013-05-06 09:56:00,55.3,44.5,30.29,WSW,250,2.0,2.0,67,0.00,,,0.00,Wunderground v.1.15,2013-05-06 13:56:00,
2013-05-06 09:57:00,55.6,44.0,30.29,WSW,243,0.0,2.0,65,0.00,,,0.00,Wunderground v.1.15,2013-05-06 13:57:00,
2013-05-06 09:59:00,56.0,44.4,30.29,SSW,211,1.0,2.0,65,0.00,,,0.00,Wunderground v.1.15,2013-05-06 13:59:00,
2013-05-06 10:01:00,56.4,44.8,30.29,North,4,2.0,2.0,65,0.00,,,0.00,Wunderground v.1.15,2013-05-06 14:01:00,
2013-05-06 10:02:00,56.6,44.1,30.29,SW,223,1.0,3.0,63,0.00,,,0.00,Wunderground v.1.15,2013-05-06 14:02:00,
2013-05-06 10:04:00,56.8,44.7,30.29,WSW,243,0.0,3.0,64,0.00,,,0.00,Wunderground v.1.15,2013-05-06 14:04:00,
2013-05-06 10:05:00,56.9,44.0,30.29,West,266,0.0,3.0,62,0.00,,,0.00,Wunderground v.1.15,2013-05-06 14:05:00,
2013-05-06 10:06:00,57.1,45.0,30.29,North,5,2.0,3.0,64,0.00,,,0.00,Wunderground v.1.15,2013-05-06 14:06:00,
2013-05-06 10:07:00,57.2,44.7,30.29,North,352,1.0,4.0,63,0.00,,,0.00,Wunderground v.1.15,2013-05-06 14:07:00,
2013-05-06 10:09:00,57.2,43.9,30.29,NW,325,0.0,4.0,61,0.00,,,0.00,Wunderground v.1.15,2013-05-06 14:09:00,
2013-05-06 10:10:00,57.2,43.9,30.29,North,9,2.0,2.0,61,0.00,,,0.00,Wunderground v.1.15,2013-05-06 14:10:00,
2013-05-06 10:11:00,57.0,43.2,30.29,WSW,252,2.0,3.0,60,0.00,,,0.00,Wunderground v.1.15,2013-05-06 14:11:00,
2013-05-06 10:12:00,56.9,43.2,30.29,WSW,246,0.0,3.0,60,0.00,,,0.00,Wunderground v.1.15,2013-05-06 14:12:00,
2013-05-06 10:15:00,57.1,44.6,30.29,WNW,293,0.0,3.0,63,0.00,,,0.00,Wunderground v.1.15,2013-05-06 14:15:00,
2013-05-06 10:16:00,57.3,45.2,30.29,NE,37,1.0,3.0,64,0.00,,,0.00,Wunderground v.1.15,2013-05-06 14:16:00,
2013-05-06 10:17:00,57.5,44.6,30.29,West,263,0.0,3.0,62,0.00,,,0.00,Wunderground v.1.15,2013-05-06 14:17:00,
2013-05-06 10:21:00,58.0,44.2,30.29,West,259,0.0,1.0,60,0.00,,,0.00,Wunderground v.1.15,2013-05-06 14:21:00,
2013-05-06 10:22:00,58.2,44.4,30.29,ENE,63,0.0,2.0,60,0.00,,,0.00,Wunderground v.1.15,2013-05-06 14:22:00,
2013-05-06 10:26:00,58.4,44.6,30.28,NNE,12,4.0,6.0,60,0.00,,,0.00,Wunderground v.1.15,2013-05-06 14:26:00,
2013-05-06 10:27:00,58.3,44.5,30.28,North,356,2.0,6.0,60,0.00,,,0.00,Wunderground v.1.15,2013-05-06 14:27:00,
2013-05-06 10:28:00,58.3,44.9,30.28,NNE,25,0.0,6.0,61,0.00,,,0.00,Wunderground v.1.15,2013-05-06 14:28:00,
2013-05-06 10:31:00,58.4,45.4,30.28,SSW,210,0.0,2.0,62,0.00,,,0.00,Wunderground v.1.15,2013-05-06 14:31:00,
2013-05-06 10:32:00,58.7,45.7,30.28,NNW,335,0.0,2.0,62,0.00,,,0.00,Wunderground v.1.15,2013-05-06 14:32:00,
2013-05-06 10:33:00,58.8,46.2,30.28,NNW,340,2.0,3.0,63,0.00,,,0.00,Wunderground v.1.15,2013-05-06 14:33:00,
2013-05-06 10:36:00,59.6,47.4,30.28,West,259,1.0,3.0,64,0.00,,,0.00,Wunderground v.1.15,2013-05-06 14:36:00,
2013-05-06 10:37:00,59.9,48.9,30.28,SSW,194,2.0,3.0,67,0.00,,,0.00,Wunderground v.1.15,2013-05-06 14:37:00,
2013-05-06 10:38:00,60.0,49.0,30.28,SSW,210,1.0,3.0,67,0.00,,,0.00,Wunderground v.1.15,2013-05-06 14:38:00,
2013-05-06 10:41:00,60.8,46.8,30.28,SW,222,3.0,4.0,60,0.00,,,0.00,Wunderground v.1.15,2013-05-06 14:41:00,
2013-05-06 10:42:00,61.1,46.7,30.28,West,264,3.0,6.0,59,0.00,,,0.00,Wunderground v.1.15,2013-05-06 14:42:00,
2013-05-06 10:43:00,61.1,46.7,30.28,SW,229,2.0,6.0,59,0.00,,,0.00,Wunderground v.1.15,2013-05-06 14:43:00,
2013-05-06 10:46:00,61.3,46.4,30.28,SW,226,2.0,6.0,58,0.00,,,0.00,Wunderground v.1.15,2013-05-06 14:46:00,
2013-05-06 10:47:00,61.3,45.9,30.28,West,273,0.0,6.0,57,0.00,,,0.00,Wunderground v.1.15,2013-05-06 14:47:00,
2013-05-06 10:48:00,61.4,46.5,30.28,West,264,0.0,6.0,58,0.00,,,0.00,Wunderground v.1.15,2013-05-06 14:48:00,
2013-05-06 10:51:00,61.7,48.1,30.28,WSW,240,1.0,2.0,61,0.00,,,0.00,Wunderground v.1.15,2013-05-06 14:51:00,
2013-05-06 10:52:00,61.8,47.3,30.28,WNW,283,0.0,2.0,59,0.00,,,0.00,Wunderground v.1.15,2013-05-06 14:52:00,
2013-05-06 10:53:00,61.9,47.0,30.28,WNW,296,2.0,2.0,58,0.00,,,0.00,Wunderground v.1.15,2013-05-06 14:53:00,
2013-05-06 10:56:00,62.1,46.7,30.28,NNW,328,2.0,5.0,57,0.00,,,0.00,Wunderground v.1.15,2013-05-06 14:56:00,
2013-05-06 10:57:00,62.1,47.6,30.28,NNW,340,3.0,5.0,59,0.00,,,0.00,Wunderground v.1.15,2013-05-06 14:57:00,
2013-05-06 10:58:00,62.0,46.6,30.28,North,3,6.0,10.0,57,0.00,,,0.00,Wunderground v.1.15,2013-05-06 14:58:00,
2013-05-06 11:02:00,61.2,46.8,30.28,NNW,344,8.0,12.0,59,0.00,,,0.00,Wunderground v.1.15,2013-05-06 15:02:00,
2013-05-06 11:03:00,61.0,46.6,30.28,North,352,1.0,12.0,59,0.00,,,0.00,Wunderground v.1.15,2013-05-06 15:03:00,
2013-05-06 11:04:00,61.0,46.6,30.28,NNE,13,3.0,12.0,59,0.00,,,0.00,Wunderground v.1.15,2013-05-06 15:04:00,
2013-05-06 11:07:00,61.0,47.0,30.27,WSW,256,1.0,12.0,60,0.00,,,0.00,Wunderground v.1.15,2013-05-06 15:07:00,
2013-05-06 11:09:00,61.1,47.1,30.27,NNW,339,4.0,12.0,60,0.00,,,0.00,Wunderground v.1.15,2013-05-06 15:09:00,
2013-05-06 11:12:00,61.4,47.8,30.27,North,4,4.0,7.0,61,0.00,,,0.00,Wunderground v.1.15,2013-05-06 15:12:00,
2013-05-06 11:14:00,61.5,47.5,30.27,North,360,2.0,8.0,60,0.00,,,0.00,Wunderground v.1.15,2013-05-06 15:14:00,
2013-05-06 11:17:00,62.2,49.9,30.27,WNW,291,1.0,8.0,64,0.00,,,0.00,Wunderground v.1.15,2013-05-06 15:17:00,
2013-05-06 11:18:00,62.3,50.0,30.27,SW,236,2.0,8.0,64,0.00,,,0.00,Wunderground v.1.15,2013-05-06 15:18:00,
2013-05-06 11:19:00,62.8,48.7,30.27,WSW,249,2.0,8.0,60,0.00,,,0.00,Wunderground v.1.15,2013-05-06 15:19:00,
2013-05-06 11:22:00,63.9,49.7,30.27,NW,314,2.0,3.0,60,0.00,,,0.00,Wunderground v.1.15,2013-05-06 15:22:00,
2013-05-06 11:23:00,64.1,49.9,30.27,North,8,4.0,4.0,60,0.00,,,0.00,Wunderground v.1.15,2013-05-06 15:23:00,
2013-05-06 11:24:00,64.2,49.1,30.27,SW,224,1.0,4.0,58,0.00,,,0.00,Wunderground v.1.15,2013-05-06 15:24:00,
2013-05-06 11:25:00,64.3,49.7,30.27,NNE,27,1.0,4.0,59,0.00,,,0.00,Wunderground v.1.15,2013-05-06 15:25:00,
2013-05-06 11:27:00,64.5,49.8,30.27,NW,314,3.0,4.0,59,0.00,,,0.00,Wunderground v.1.15,2013-05-06 15:27:00,
2013-05-06 11:28:00,64.5,49.8,30.27,ENE,67,2.0,4.0,59,0.00,,,0.00,Wunderground v.1.15,2013-05-06 15:28:00,
2013-05-06 11:29:00,64.7,50.5,30.27,SSE,163,1.0,4.0,60,0.00,,,0.00,Wunderground v.1.15,2013-05-06 15:29:00,
2013-05-06 11:30:00,64.7,50.5,30.27,WSW,253,6.0,6.0,60,0.00,,,0.00,Wunderground v.1.15,2013-05-06 15:30:00,
2013-05-06 11:32:00,64.9,50.2,30.27,WSW,246,1.0,6.0,59,0.00,,,0.00,Wunderground v.1.15,2013-05-06 15:32:00,
2013-05-06 11:33:00,64.9,48.8,30.27,SSW,203,1.0,6.0,56,0.00,,,0.00,Wunderground v.1.15,2013-05-06 15:33:00,
2013-05-06 11:34:00,65.0,48.4,30.27,SW,233,0.0,6.0,55,0.00,,,0.00,Wunderground v.1.15,2013-05-06 15:34:00,
2013-05-06 11:35:00,65.2,48.6,30.26,North,352,5.0,6.0,55,0.00,,,0.00,Wunderground v.1.15,2013-05-06 15:35:00,
2013-05-06 11:37:00,65.0,47.4,30.26,NNW,332,3.0,8.0,53,0.00,,,0.00,Wunderground v.1.15,2013-05-06 15:37:00,
2013-05-06 11:38:00,64.9,47.9,30.26,NNE,24,4.0,8.0,54,0.00,,,0.00,Wunderground v.1.15,2013-05-06 15:38:00,
2013-05-06 11:39:00,64.7,48.6,30.26,NNE,27,5.0,8.0,56,0.00,,,0.00,Wunderground v.1.15,2013-05-06 15:39:00,
2013-05-06 11:40:00,64.7,48.6,30.26,NNW,335,0.0,3.0,56,0.00,,,0.00,Wunderground v.1.15,2013-05-06 15:40:00,
2013-05-06 11:41:00,64.7,48.2,30.26,NW,318,2.0,4.0,55,0.00,,,0.00,Wunderground v.1.15,2013-05-06 15:41:00,
2013-05-06 11:42:00,64.7,49.1,30.26,WSW,249,2.0,4.0,57,0.00,,,0.00,Wunderground v.1.15,2013-05-06 15:42:00,
2013-05-06 11:43:00,64.8,49.2,30.26,SW,214,2.0,4.0,57,0.00,,,0.00,Wunderground v.1.15,2013-05-06 15:43:00,
2013-05-06 11:44:00,64.9,49.3,30.26,SW,224,4.0,5.0,57,0.00,,,0.00,Wunderground v.1.15,2013-05-06 15:44:00,
2013-05-06 11:45:00,65.0,48.4,30.26,WSW,240,1.0,5.0,55,0.00,,,0.00,Wunderground v.1.15,2013-05-06 15:45:00,
2013-05-06 11:46:00,65.1,49.5,30.26,West,264,0.0,5.0,57,0.00,,,0.00,Wunderground v.1.15,2013-05-06 15:46:00,
2013-05-06 11:48:00,65.4,50.2,30.26,East,97,2.0,5.0,58,0.00,,,0.00,Wunderground v.1.15,2013-05-06 15:48:00,
2013-05-06 11:49:00,65.7,50.5,30.26,NNE,22,1.0,5.0,58,0.00,,,0.00,Wunderground v.1.15,2013-05-06 15:49:00,
2013-05-06 11:50:00,65.8,48.7,30.26,SW,229,2.0,6.0,54,0.00,,,0.00,Wunderground v.1.15,2013-05-06 15:50:00,
2013-05-06 11:51:00,65.9,50.7,30.26,SW,229,2.0,6.0,58,0.00,,,0.00,Wunderground v.1.15,2013-05-06 15:51:00,
2013-05-06 11:53:00,66.2,49.1,30.26,SSE,166,0.0,6.0,54,0.00,,,0.00,Wunderground v.1.15,2013-05-06 15:53:00,
2013-05-06 11:54:00,66.4,50.2,30.26,WNW,293,5.0,6.0,56,0.00,,,0.00,Wunderground v.1.15,2013-05-06 15:54:00,
2013-05-06 11:55:00,66.6,50.4,30.26,WNW,296,2.0,6.0,56,0.00,,,0.00,Wunderground v.1.15,2013-05-06 15:55:00,
2013-05-06 11:56:00,66.7,50.0,30.26,WNW,286,1.0,6.0,55,0.00,,,0.00,Wunderground v.1.15,2013-05-06 15:56:00,
2013-05-06 11:58:00,66.7,51.0,30.25,NNE,23,1.0,6.0,57,0.00,,,0.00,Wunderground v.1.15,2013-05-06 15:58:00,
2013-05-06 11:59:00,66.7,49.5,30.25,NNW,335,3.0,6.0,54,0.00,,,0.00,Wunderground v.1.15,2013-05-06 15:59:00,
2013-05-06 12:01:00,66.7,50.0,30.25,North,5,2.0,5.0,55,0.00,,,0.00,Wunderground v.1.15,2013-05-06 16:01:00,
2013-05-06 12:03:00,66.3,48.7,30.25,NNW,330,1.0,5.0,53,0.00,,,0.00,Wunderground v.1.15,2013-05-06 16:03:00,
2013-05-06 12:04:00,66.3,48.7,30.25,WNW,294,4.0,5.0,53,0.00,,,0.00,Wunderground v.1.15,2013-05-06 16:04:00,
2013-05-06 12:06:00,66.1,50.4,30.25,West,273,3.0,5.0,57,0.00,,,0.00,Wunderground v.1.15,2013-05-06 16:06:00,
2013-05-06 12:09:00,66.1,50.4,30.25,NW,309,2.0,6.0,57,0.00,,,0.00,Wunderground v.1.15,2013-05-06 16:09:00,
2013-05-06 12:11:00,66.2,49.1,30.25,North,11,1.0,3.0,54,0.00,,,0.00,Wunderground v.1.15,2013-05-06 16:11:00,
2013-05-06 12:12:00,66.2,50.0,30.25,SE,124,0.0,3.0,56,0.00,,,0.00,Wunderground v.1.15,2013-05-06 16:12:00,
2013-05-06 12:14:00,66.4,50.2,30.25,North,359,4.0,4.0,56,0.00,,,0.00,Wunderground v.1.15,2013-05-06 16:14:00,
2013-05-06 12:15:00,66.6,49.4,30.25,North,352,2.0,6.0,54,0.00,,,0.00,Wunderground v.1.15,2013-05-06 16:15:00,
2013-05-06 12:16:00,66.6,47.9,30.25,NNW,345,5.0,9.0,51,0.00,,,0.00,Wunderground v.1.15,2013-05-06 16:16:00,
2013-05-06 12:17:00,66.4,47.7,30.25,ENE,72,7.0,9.0,51,0.00,,,0.00,Wunderground v.1.15,2013-05-06 16:17:00,
2013-05-06 12:19:00,66.2,48.6,30.24,NNE,23,3.0,9.0,53,0.00,,,0.00,Wunderground v.1.15,2013-05-06 16:19:00,
2013-05-06 12:20:00,66.1,48.5,30.24,NNW,344,0.0,3.0,53,0.00,,,0.00,Wunderground v.1.15,2013-05-06 16:20:00,
2013-05-06 12:21:00,66.1,48.5,30.25,SW,233,3.0,3.0,53,0.00,,,0.00,Wunderground v.1.15,2013-05-06 16:21:00,
2013-05-06 12:22:00,66.1,49.5,30.24,NNW,337,1.0,3.0,55,0.00,,,0.00,Wunderground v.1.15,2013-05-06 16:22:00,
2013-05-06 12:24:00,66.4,51.6,30.24,NNW,344,2.0,5.0,59,0.00,,,0.00,Wunderground v.1.15,2013-05-06 16:24:00,
2013-05-06 12:25:00,66.7,50.0,30.24,SW,231,2.0,5.0,55,0.00,,,0.00,Wunderground v.1.15,2013-05-06 16:25:00,
2013-05-06 12:26:00,66.8,50.1,30.24,WNW,297,3.0,5.0,55,0.00,,,0.00,Wunderground v.1.15,2013-05-06 16:26:00,
2013-05-06 12:27:00,66.9,50.7,30.24,WSW,238,1.0,5.0,56,0.00,,,0.00,Wunderground v.1.15,2013-05-06 16:27:00,
2013-05-06 12:29:00,67.1,49.4,30.24,NNW,329,2.0,5.0,53,0.00,,,0.00,Wunderground v.1.15,2013-05-06 16:29:00,
2013-05-06 12:30:00,67.2,51.0,30.24,WNW,300,3.0,7.0,56,0.00,,,0.00,Wunderground v.1.15,2013-05-06 16:30:00,
2013-05-06 12:31:00,67.2,51.0,30.24,ESE,120,1.0,7.0,56,0.00,,,0.00,Wunderground v.1.15,2013-05-06 16:31:00,
2013-05-06 12:32:00,67.3,49.1,30.24,NNW,347,5.0,7.0,52,0.00,,,0.00,Wunderground v.1.15,2013-05-06 16:32:00,
2013-05-06 12:34:00,67.1,48.4,30.24,North,5,7.0,10.0,51,0.00,,,0.00,Wunderground v.1.15,2013-05-06 16:34:00,
2013-05-06 12:36:00,66.8,48.6,30.24,NNW,336,4.0,10.0,52,0.00,,,0.00,Wunderground v.1.15,2013-05-06 16:36:00,
2013-05-06 12:37:00,66.6,47.9,30.24,NW,326,2.0,10.0,51,0.00,,,0.00,Wunderground v.1.15,2013-05-06 16:37:00,
2013-05-06 12:39:00,66.4,49.7,30.24,NW,307,4.0,10.0,55,0.00,,,0.00,Wunderground v.1.15,2013-05-06 16:39:00,
2013-05-06 12:41:00,66.4,48.2,30.24,North,350,1.0,6.0,52,0.00,,,0.00,Wunderground v.1.15,2013-05-06 16:41:00,
2013-05-06 12:42:00,66.4,48.7,30.24,North,351,1.0,6.0,53,0.00,,,0.00,Wunderground v.1.15,2013-05-06 16:42:00,
2013-05-06 12:44:00,66.5,49.8,30.23,NNE,30,2.0,7.0,55,0.00,,,0.00,Wunderground v.1.15,2013-05-06 16:44:00,
2013-05-06 12:45:00,66.5,49.8,30.23,NNE,27,2.0,7.0,55,0.00,,,0.00,Wunderground v.1.15,2013-05-06 16:45:00,
2013-05-06 12:46:00,66.6,47.9,30.23,West,270,1.0,7.0,51,0.00,,,0.00,Wunderground v.1.15,2013-05-06 16:46:00,
2013-05-06 12:48:00,66.7,50.0,30.23,NE,34,3.0,7.0,55,0.00,,,0.00,Wunderground v.1.15,2013-05-06 16:48:00,
2013-05-06 12:49:00,67.1,52.7,30.23,SW,215,3.0,7.0,60,0.00,,,0.00,Wunderground v.1.15,2013-05-06 16:49:00,
2013-05-06 12:50:00,67.2,52.8,30.23,SW,232,2.0,4.0,60,0.00,,,0.00,Wunderground v.1.15,2013-05-06 16:50:00,
2013-05-06 12:52:00,67.6,49.3,30.23,ENE,78,0.0,4.0,52,0.00,,,0.00,Wunderground v.1.15,2013-05-06 16:52:00,
2013-05-06 12:53:00,67.7,48.9,30.23,SE,128,1.0,4.0,51,0.00,,,0.00,Wunderground v.1.15,2013-05-06 16:53:00,
2013-05-06 12:55:00,68.0,48.1,30.23,West,274,0.0,4.0,49,0.00,,,0.00,Wunderground v.1.15,2013-05-06 16:55:00,
2013-05-06 12:57:00,68.1,49.3,30.23,North,359,5.0,9.0,51,0.00,,,0.00,Wunderground v.1.15,2013-05-06 16:57:00,
2013-05-06 12:58:00,68.0,47.6,30.23,North,360,4.0,9.0,48,0.00,,,0.00,Wunderground v.1.15,2013-05-06 16:58:00,
2013-05-06 13:00:00,67.3,46.9,30.23,NNW,345,2.0,7.0,48,0.00,,,0.00,Wunderground v.1.15,2013-05-06 17:00:00,
2013-05-06 13:01:00,67.3,46.9,30.23,NW,309,2.0,7.0,48,0.00,,,0.00,Wunderground v.1.15,2013-05-06 17:01:00,
2013-05-06 13:02:00,67.1,47.3,30.23,NNE,31,2.0,7.0,49,0.00,,,0.00,Wunderground v.1.15,2013-05-06 17:02:00,
2013-05-06 13:03:00,67.1,49.4,30.23,NE,46,1.0,7.0,53,0.00,,,0.00,Wunderground v.1.15,2013-05-06 17:03:00,
2013-05-06 13:05:00,67.4,48.6,30.23,North,1,3.0,7.0,51,0.00,,,0.00,Wunderground v.1.15,2013-05-06 17:05:00,
2013-05-06 13:06:00,67.4,48.6,30.23,North,1,4.0,7.0,51,0.00,,,0.00,Wunderground v.1.15,2013-05-06 17:06:00,
2013-05-06 13:07:00,67.5,48.7,30.23,East,101,6.0,8.0,51,0.00,,,0.00,Wunderground v.1.15,2013-05-06 17:07:00,
2013-05-06 13:08:00,67.5,47.1,30.23,East,88,4.0,8.0,48,0.00,,,0.00,Wunderground v.1.15,2013-05-06 17:08:00,
2013-05-06 13:10:00,67.3,48.5,30.22,North,360,0.0,3.0,51,0.00,,,0.00,Wunderground v.1.15,2013-05-06 17:10:00,
2013-05-06 13:11:00,67.3,48.0,30.22,NE,51,1.0,3.0,50,0.00,,,0.00,Wunderground v.1.15,2013-05-06 17:11:00,
2013-05-06 13:12:00,67.3,48.5,30.22,NE,45,2.0,3.0,51,0.00,,,0.00,Wunderground v.1.15,2013-05-06 17:12:00,
2013-05-06 13:13:00,67.3,48.0,30.22,NNE,18,1.0,4.0,50,0.00,,,0.00,Wunderground v.1.15,2013-05-06 17:13:00,
2013-05-06 13:15:00,67.8,49.5,30.22,NNW,347,5.0,5.0,52,0.00,,,0.00,Wunderground v.1.15,2013-05-06 17:15:00,
2013-05-06 13:16:00,67.9,48.6,30.22,North,1,4.0,9.0,50,0.00,,,0.00,Wunderground v.1.15,2013-05-06 17:16:00,
2013-05-06 13:17:00,68.0,48.7,30.22,NNW,348,4.0,9.0,50,0.00,,,0.00,Wunderground v.1.15,2013-05-06 17:17:00,
2013-05-06 13:18:00,68.0,49.7,30.22,North,9,4.0,9.0,52,0.00,,,0.00,Wunderground v.1.15,2013-05-06 17:18:00,
2013-05-06 13:21:00,68.0,49.7,30.22,NW,320,1.0,5.0,52,0.00,,,0.00,Wunderground v.1.15,2013-05-06 17:21:00,
2013-05-06 13:22:00,68.0,49.2,30.22,SW,214,0.0,5.0,51,0.00,,,0.00,Wunderground v.1.15,2013-05-06 17:22:00,
2013-05-06 13:23:00,68.1,50.3,30.22,NNW,328,0.0,5.0,53,0.00,,,0.00,Wunderground v.1.15,2013-05-06 17:23:00,
2013-05-06 13:26:00,68.7,50.4,30.22,NNW,335,3.0,6.0,52,0.00,,,0.00,Wunderground v.1.15,2013-05-06 17:26:00,
2013-05-06 13:27:00,68.8,47.7,30.22,ENE,68,0.0,7.0,47,0.00,,,0.00,Wunderground v.1.15,2013-05-06 17:27:00,
2013-05-06 13:28:00,68.7,49.3,30.22,West,266,1.0,7.0,50,0.00,,,0.00,Wunderground v.1.15,2013-05-06 17:28:00,
2013-05-06 13:31:00,68.9,48.4,30.22,North,352,1.0,5.0,48,0.00,,,0.00,Wunderground v.1.15,2013-05-06 17:31:00,
2013-05-06 13:32:00,68.9,47.3,30.22,WNW,295,1.0,5.0,46,0.00,,,0.00,Wunderground v.1.15,2013-05-06 17:32:00,
2013-05-06 13:33:00,69.0,47.4,30.22,West,281,0.0,5.0,46,0.00,,,0.00,Wunderground v.1.15,2013-05-06 17:33:00,
2013-05-06 13:36:00,69.3,49.9,30.22,NNW,348,5.0,6.0,50,0.00,,,0.00,Wunderground v.1.15,2013-05-06 17:36:00,
2013-05-06 13:37:00,69.3,48.2,30.22,North,359,7.0,7.0,47,0.00,,,0.00,Wunderground v.1.15,2013-05-06 17:37:00,
2013-05-06 13:38:00,69.3,48.2,30.22,NNE,25,6.0,8.0,47,0.00,,,0.00,Wunderground v.1.15,2013-05-06 17:38:00,
2013-05-06 13:41:00,69.0,48.5,30.22,NW,313,2.0,4.0,48,0.00,,,0.00,Wunderground v.1.15,2013-05-06 17:41:00,
2013-05-06 13:42:00,69.1,50.7,30.21,NNE,16,4.0,4.0,52,0.00,,,0.00,Wunderground v.1.15,2013-05-06 17:42:00,
2013-05-06 13:43:00,69.2,50.8,30.22,NNW,347,4.0,4.0,52,0.00,,,0.00,Wunderground v.1.15,2013-05-06 17:43:00,
2013-05-06 13:46:00,69.5,50.6,30.22,SSW,197,2.0,7.0,51,0.00,,,0.00,Wunderground v.1.15,2013-05-06 17:46:00,
2013-05-06 13:47:00,69.7,50.2,30.22,SW,233,4.0,7.0,50,0.00,,,0.00,Wunderground v.1.15,2013-05-06 17:47:00,
2013-05-06 13:48:00,69.7,50.2,30.22,SSW,211,2.0,7.0,50,0.00,,,0.00,Wunderground v.1.15,2013-05-06 17:48:00,
2013-05-06 13:49:00,69.9,50.4,30.22,East,89,1.0,7.0,50,0.00,,,0.00,Wunderground v.1.15,2013-05-06 17:49:00,
2013-05-06 13:52:00,70.0,47.1,30.21,NW,321,0.0,4.0,44,0.00,,,0.00,Wunderground v.1.15,2013-05-06 17:52:00,
2013-05-06 13:53:00,70.1,48.4,30.21,SSW,195,1.0,4.0,46,0.00,,,0.00,Wunderground v.1.15,2013-05-06 17:53:00,
2013-05-06 13:54:00,70.1,47.2,30.21,SSE,153,0.0,4.0,44,0.00,,,0.00,Wunderground v.1.15,2013-05-06 17:54:00,
2013-05-06 13:57:00,70.8,49.6,30.21,NE,48,0.0,4.0,47,0.00,,,0.00,Wunderground v.1.15,2013-05-06 17:57:00,
2013-05-06 13:58:00,71.0,49.7,30.21,NW,312,3.0,5.0,47,0.00,,,0.00,Wunderground v.1.15,2013-05-06 17:58:00,
2013-05-06 13:59:00,71.2,50.5,30.21,South,181,4.0,5.0,48,0.00,,,0.00,Wunderground v.1.15,2013-05-06 17:59:00,
2013-05-06 14:02:00,71.4,48.9,30.21,West,264,0.0,5.0,45,0.00,,,0.00,Wunderground v.1.15,2013-05-06 18:02:00,
2013-05-06 14:03:00,71.5,51.3,30.21,NW,326,3.0,5.0,49,0.00,,,0.00,Wunderground v.1.15,2013-05-06 18:03:00,
2013-05-06 14:04:00,71.6,51.4,30.21,North,1,5.0,7.0,49,0.00,,,0.00,Wunderground v.1.15,2013-05-06 18:04:00,
2013-05-06 14:07:00,71.2,46.3,30.21,SE,142,2.0,7.0,41,0.00,,,0.00,Wunderground v.1.15,2013-05-06 18:07:00,
2013-05-06 14:08:00,71.2,46.3,30.21,SW,218,4.0,7.0,41,0.00,,,0.00,Wunderground v.1.15,2013-05-06 18:08:00,
2013-05-06 14:09:00,71.1,47.5,30.21,WSW,240,2.0,7.0,43,0.00,,,0.00,Wunderground v.1.15,2013-05-06 18:09:00,
2013-05-06 14:13:00,71.2,48.8,30.21,North,4,4.0,6.0,45,0.00,,,0.00,Wunderground v.1.15,2013-05-06 18:13:00,
2013-05-06 14:14:00,71.2,51.1,30.21,NNW,329,1.0,6.0,49,0.00,,,0.00,Wunderground v.1.15,2013-05-06 18:14:00,
2013-05-06 14:18:00,71.6,49.7,30.20,West,278,1.0,6.0,46,0.00,,,0.00,Wunderground v.1.15,2013-05-06 18:18:00,
2013-05-06 14:19:00,71.6,47.9,30.20,West,268,4.0,6.0,43,0.00,,,0.00,Wunderground v.1.15,2013-05-06 18:19:00,
2013-05-06 14:20:00,71.6,47.9,30.20,West,281,0.0,6.0,43,0.00,,,0.00,Wunderground v.1.15,2013-05-06 18:20:00,
2013-05-06 14:23:00,71.7,47.4,30.20,SE,145,5.0,6.0,42,0.00,,,0.00,Wunderground v.1.15,2013-05-06 18:23:00,
2013-05-06 14:24:00,71.7,47.4,30.20,SSE,165,3.0,6.0,42,0.00,,,0.00,Wunderground v.1.15,2013-05-06 18:24:00,
2013-05-06 14:25:00,71.7,47.4,30.20,SW,221,0.0,6.0,42,0.00,,,0.00,Wunderground v.1.15,2013-05-06 18:25:00,
2013-05-06 14:29:00,72.0,47.0,30.20,SSE,162,0.0,6.0,41,0.00,,,0.00,Wunderground v.1.15,2013-05-06 18:29:00,
2013-05-06 14:30:00,72.0,47.6,30.20,WNW,302,2.0,6.0,42,0.00,,,0.00,Wunderground v.1.15,2013-05-06 18:30:00,
2013-05-06 14:34:00,72.2,46.5,30.20,SSW,203,2.0,8.0,40,0.00,,,0.00,Wunderground v.1.15,2013-05-06 18:34:00,
2013-05-06 14:35:00,72.2,47.2,30.20,SSW,208,3.0,8.0,41,0.00,,,0.00,Wunderground v.1.15,2013-05-06 18:35:00,
2013-05-06 14:39:00,72.3,46.6,30.20,SW,217,0.0,8.0,40,0.00,,,0.00,Wunderground v.1.15,2013-05-06 18:39:00,
2013-05-06 14:40:00,72.4,46.7,30.20,South,173,2.0,3.0,40,0.00,,,0.00,Wunderground v.1.15,2013-05-06 18:40:00,
2013-05-06 14:44:00,73.0,49.2,30.19,SW,214,1.0,6.0,43,0.00,,,0.00,Wunderground v.1.15,2013-05-06 18:44:00,
2013-05-06 14:45:00,73.0,47.2,30.19,WNW,298,2.0,6.0,40,0.00,,,0.00,Wunderground v.1.15,2013-05-06 18:45:00,
2013-05-06 14:46:00,73.1,49.3,30.19,WNW,290,0.0,6.0,43,0.00,,,0.00,Wunderground v.1.15,2013-05-06 18:46:00,
2013-05-06 14:49:00,73.6,49.1,30.19,North,349,3.0,6.0,42,0.00,,,0.00,Wunderground v.1.15,2013-05-06 18:49:00,
2013-05-06 14:50:00,73.7,47.2,30.19,SW,228,4.0,4.0,39,0.00,,,0.00,Wunderground v.1.15,2013-05-06 18:50:00,
2013-05-06 14:51:00,73.7,47.2,30.19,West,262,0.0,4.0,39,0.00,,,0.00,Wunderground v.1.15,2013-05-06 18:51:00,
2013-05-06 14:54:00,73.5,47.7,30.19,North,350,2.0,4.0,40,0.00,,,0.00,Wunderground v.1.15,2013-05-06 18:54:00,
2013-05-06 14:55:00,73.5,48.4,30.19,West,276,1.0,4.0,41,0.00,,,0.00,Wunderground v.1.15,2013-05-06 18:55:00,
2013-05-06 14:56:00,73.5,49.0,30.19,North,359,5.0,5.0,42,0.00,,,0.00,Wunderground v.1.15,2013-05-06 18:56:00,
2013-05-06 15:00:00,72.6,44.8,30.19,South,188,2.0,3.0,37,0.00,,,0.00,Wunderground v.1.15,2013-05-06 19:00:00,
2013-05-06 15:01:00,72.4,45.4,30.19,NNE,20,1.0,3.0,38,0.00,,,0.00,Wunderground v.1.15,2013-05-06 19:01:00,
2013-05-06 15:05:00,72.7,48.3,30.18,WSW,246,0.0,3.0,42,0.00,,,0.00,Wunderground v.1.15,2013-05-06 19:05:00,
2013-05-06 15:06:00,73.0,47.2,30.18,SE,146,2.0,4.0,40,0.00,,,0.00,Wunderground v.1.15,2013-05-06 19:06:00,
2013-05-06 20:40:00,57.0,47.7,30.19,WNW,285,0.0,0.0,71,0.00,,,0.00,Wunderground v.1.15,2013-05-07 00:40:00,
2013-05-06 20:41:00,57.0,47.7,30.19,SSE,149,0.0,0.0,71,0.00,,,0.00,Wunderground v.1.15,2013-05-07 00:41:00,
2013-05-06 20:45:00,56.5,47.6,30.19,WSW,254,0.0,2.0,72,0.00,,,0.00,Wunderground v.1.15,2013-05-07 00:45:00,
2013-05-06 20:46:00,56.5,47.6,30.19,SW,219,0.0,2.0,72,0.00,,,0.00,Wunderground v.1.15,2013-05-07 00:46:00,
2013-05-06 20:50:00,56.2,47.7,30.19,SSW,208,0.0,0.0,73,0.00,,,0.00,Wunderground v.1.15,2013-05-07 00:50:00,
2013-05-06 20:51:00,56.2,47.7,30.19,SSW,208,0.0,0.0,73,0.00,,,0.00,Wunderground v.1.15,2013-05-07 00:51:00,
2013-05-06 20:55:00,55.9,47.7,30.19,WSW,249,0.0,3.0,74,0.00,,,0.00,Wunderground v.1.15,2013-05-07 00:55:00,
2013-05-06 20:56:00,55.9,47.7,30.19,WSW,249,0.0,3.0,74,0.00,,,0.00,Wunderground v.1.15,2013-05-07 00:56:00,
2013-05-06 21:01:00,55.6,47.4,30.20,WNW,302,0.0,0.0,74,0.00,,,0.00,Wunderground v.1.15,2013-05-07 01:01:00,
2013-05-06 21:02:00,55.5,47.3,30.20,SSE,158,0.0,2.0,74,0.00,,,0.00,Wunderground v.1.15,2013-05-07 01:02:00,
2013-05-06 21:06:00,55.3,47.2,30.20,SSE,158,0.0,2.0,74,0.00,,,0.00,Wunderground v.1.15,2013-05-07 01:06:00,
2013-05-06 21:07:00,55.3,47.2,30.20,SSE,158,0.0,2.0,74,0.00,,,0.00,Wunderground v.1.15,2013-05-07 01:07:00,
2013-05-06 21:11:00,54.9,47.1,30.20,NW,305,0.0,0.0,75,0.00,,,0.00,Wunderground v.1.15,2013-05-07 01:11:00,
2013-05-06 21:12:00,54.9,47.1,30.20,NW,305,1.0,2.0,75,0.00,,,0.00,Wunderground v.1.15,2013-05-07 01:12:00,
2013-05-06 21:16:00,54.6,46.8,30.20,West,264,0.0,2.0,75,0.00,,,0.00,Wunderground v.1.15,2013-05-07 01:16:00,
2013-05-06 21:17:00,54.6,47.2,30.20,West,264,0.0,2.0,76,0.00,,,0.00,Wunderground v.1.15,2013-05-07 01:17:00,
2013-05-06 21:18:00,54.5,47.1,30.20,West,279,2.0,2.0,76,0.00,,,0.00,Wunderground v.1.15,2013-05-07 01:18:00,
2013-05-06 21:21:00,54.4,47.0,30.20,West,281,1.0,1.0,76,0.00,,,0.00,Wunderground v.1.15,2013-05-07 01:21:00,
2013-05-06 21:22:00,54.4,47.0,30.20,West,278,0.0,1.0,76,0.00,,,0.00,Wunderground v.1.15,2013-05-07 01:22:00,
2013-05-06 21:23:00,54.3,46.9,30.20,West,273,0.0,1.0,76,0.00,,,0.00,Wunderground v.1.15,2013-05-07 01:23:00,
2013-05-06 21:26:00,54.2,46.8,30.21,West,273,0.0,1.0,76,0.00,,,0.00,Wunderground v.1.15,2013-05-07 01:26:00,
2013-05-06 21:27:00,54.2,46.8,30.20,West,271,0.0,1.0,76,0.00,,,0.00,Wunderground v.1.15,2013-05-07 01:27:00,
2013-05-06 21:28:00,54.1,47.0,30.20,West,273,0.0,1.0,77,0.00,,,0.00,Wunderground v.1.15,2013-05-07 01:28:00,
2013-05-06 21:32:00,54.0,47.0,30.21,West,269,0.0,0.0,77,0.00,,,0.00,Wunderground v.1.15,2013-05-07 01:32:00,
2013-05-06 21:34:00,53.9,46.9,30.21,West,268,0.0,0.0,77,0.00,,,0.00,Wunderground v.1.15,2013-05-07 01:34:00,
2013-05-06 21:37:00,53.6,46.6,30.21,West,269,0.0,0.0,77,0.00,,,0.00,Wunderground v.1.15,2013-05-07 01:37:00,
2013-05-06 21:38:00,53.5,46.5,30.21,West,269,0.0,0.0,77,0.00,,,0.00,Wunderground v.1.15,2013-05-07 01:38:00,
2013-05-06 21:39:00,53.4,46.7,30.21,West,268,0.0,0.0,78,0.00,,,0.00,Wunderground v.1.15,2013-05-07 01:39:00,
2013-05-06 21:42:00,53.1,46.4,30.21,West,270,0.0,0.0,78,0.00,,,0.00,Wunderground v.1.15,2013-05-07 01:42:00,
2013-05-06 21:43:00,53.0,46.3,30.21,West,269,0.0,0.0,78,0.00,,,0.00,Wunderground v.1.15,2013-05-07 01:43:00,
2013-05-06 21:44:00,52.9,46.6,30.21,West,270,0.0,0.0,79,0.00,,,0.00,Wunderground v.1.15,2013-05-07 01:44:00,
2013-05-06 21:47:00,52.6,46.3,30.21,West,270,0.0,0.0,79,0.00,,,0.00,Wunderground v.1.15,2013-05-07 01:47:00,
2013-05-06 21:48:00,52.6,46.3,30.21,West,269,0.0,0.0,79,0.00,,,0.00,Wunderground v.1.15,2013-05-07 01:48:00,
2013-05-06 21:49:00,52.4,46.1,30.21,West,270,0.0,0.0,79,0.00,,,0.00,Wunderground v.1.15,2013-05-07 01:49:00,
2013-05-06 21:52:00,52.2,46.2,30.20,West,270,0.0,0.0,80,0.00,,,0.00,Wunderground v.1.15,2013-05-07 01:52:00,
2013-05-06 21:53:00,52.1,46.4,30.21,West,270,0.0,1.0,81,0.00,,,0.00,Wunderground v.1.15,2013-05-07 01:53:00,
2013-05-06 21:55:00,52.1,46.4,30.21,West,269,0.0,1.0,81,0.00,,,0.00,Wunderground v.1.15,2013-05-07 01:55:00,
2013-05-06 21:58:00,52.0,46.3,30.21,West,259,0.0,1.0,81,0.00,,,0.00,Wunderground v.1.15,2013-05-07 01:58:00,
2013-05-06 21:59:00,52.0,46.3,30.21,West,260,0.0,1.0,81,0.00,,,0.00,Wunderground v.1.15,2013-05-07 01:59:00,
2013-05-06 22:00:00,52.0,46.3,30.21,West,260,0.0,0.0,81,0.00,,,0.00,Wunderground v.1.15,2013-05-07 02:00:00,
2013-05-06 22:03:00,51.9,46.6,30.21,West,260,0.0,1.0,82,0.00,,,0.00,Wunderground v.1.15,2013-05-07 02:03:00,
2013-05-06 22:04:00,51.9,46.6,30.21,West,260,0.0,1.0,82,0.00,,,0.00,Wunderground v.1.15,2013-05-07 02:04:00,
2013-05-06 22:05:00,51.9,46.6,30.21,West,260,0.0,1.0,82,0.00,,,0.00,Wunderground v.1.15,2013-05-07 02:05:00,
2013-05-06 22:08:00,51.8,46.5,30.21,West,259,0.0,1.0,82,0.00,,,0.00,Wunderground v.1.15,2013-05-07 02:08:00,
2013-05-06 22:09:00,51.8,46.5,30.21,West,260,0.0,1.0,82,0.00,,,0.00,Wunderground v.1.15,2013-05-07 02:09:00,
2013-05-06 22:10:00,51.8,46.5,30.21,West,260,0.0,0.0,82,0.00,,,0.00,Wunderground v.1.15,2013-05-07 02:10:00,
2013-05-06 22:13:00,51.7,46.4,30.21,West,260,0.0,0.0,82,0.00,,,0.00,Wunderground v.1.15,2013-05-07 02:13:00,
2013-05-06 22:14:00,51.7,46.4,30.21,West,260,0.0,0.0,82,0.00,,,0.00,Wunderground v.1.15,2013-05-07 02:14:00,
2013-05-06 22:15:00,51.6,46.3,30.21,West,260,0.0,0.0,82,0.00,,,0.00,Wunderground v.1.15,2013-05-07 02:15:00,
2013-05-06 22:18:00,51.4,46.1,30.21,West,260,0.0,0.0,82,0.00,,,0.00,Wunderground v.1.15,2013-05-07 02:18:00,
2013-05-06 22:19:00,51.4,46.1,30.21,West,261,0.0,0.0,82,0.00,,,0.00,Wunderground v.1.15,2013-05-07 02:19:00,
2013-05-06 22:20:00,51.4,46.1,30.21,West,260,0.0,0.0,82,0.00,,,0.00,Wunderground v.1.15,2013-05-07 02:20:00,
2013-05-06 22:23:00,51.2,45.9,30.21,West,259,0.0,0.0,82,0.00,,,0.00,Wunderground v.1.15,2013-05-07 02:23:00,
2013-05-06 22:24:00,51.2,45.9,30.21,West,261,0.0,0.0,82,0.00,,,0.00,Wunderground v.1.15,2013-05-07 02:24:00,
2013-05-06 22:25:00,51.0,45.7,30.21,West,259,0.0,0.0,82,0.00,,,0.00,Wunderground v.1.15,2013-05-07 02:25:00,
2013-05-06 22:28:00,50.9,45.9,30.21,West,260,0.0,0.0,83,0.00,,,0.00,Wunderground v.1.15,2013-05-07 02:28:00,
2013-05-06 22:29:00,50.8,45.8,30.21,West,261,0.0,0.0,83,0.00,,,0.00,Wunderground v.1.15,2013-05-07 02:29:00,
2013-05-06 22:30:00,50.8,45.8,30.21,West,259,0.0,0.0,83,0.00,,,0.00,Wunderground v.1.15,2013-05-07 02:30:00,
2013-05-06 22:31:00,50.7,45.7,30.21,West,260,0.0,0.0,83,0.00,,,0.00,Wunderground v.1.15,2013-05-07 02:31:00,
2013-05-06 22:33:00,50.6,45.9,30.20,West,260,0.0,0.0,84,0.00,,,0.00,Wunderground v.1.15,2013-05-07 02:33:00,
2013-05-06 22:34:00,50.6,45.9,30.21,West,260,0.0,0.0,84,0.00,,,0.00,Wunderground v.1.15,2013-05-07 02:34:00,
2013-05-06 22:36:00,50.5,45.8,30.21,West,260,0.0,0.0,84,0.00,,,0.00,Wunderground v.1.15,2013-05-07 02:36:00,
2013-05-06 22:38:00,50.4,45.7,30.21,West,260,0.0,0.0,84,0.00,,,0.00,Wunderground v.1.15,2013-05-07 02:38:00,
2013-05-06 22:39:00,50.4,45.7,30.21,West,260,0.0,0.0,84,0.00,,,0.00,Wunderground v.1.15,2013-05-07 02:39:00,
2013-05-06 22:40:00,50.4,45.7,30.21,West,260,0.0,0.0,84,0.00,,,0.00,Wunderground v.1.15,2013-05-07 02:40:00,
2013-05-06 22:41:00,50.4,45.7,30.21,West,259,0.0,1.0,84,0.00,,,0.00,Wunderground v.1.15,2013-05-07 02:41:00,
2013-05-06 22:44:00,50.4,46.1,30.21,WSW,255,0.0,1.0,85,0.00,,,0.00,Wunderground v.1.15,2013-05-07 02:44:00,
2013-05-06 22:45:00,50.4,46.1,30.21,WSW,255,0.0,1.0,85,0.00,,,0.00,Wunderground v.1.15,2013-05-07 02:45:00,
2013-05-06 22:46:00,50.4,46.1,30.21,WSW,255,0.0,1.0,85,0.00,,,0.00,Wunderground v.1.15,2013-05-07 02:46:00,
2013-05-06 22:49:00,50.3,46.0,30.21,WSW,250,0.0,1.0,85,0.00,,,0.00,Wunderground v.1.15,2013-05-07 02:49:00,
2013-05-06 22:50:00,50.3,46.0,30.21,WSW,250,0.0,0.0,85,0.00,,,0.00,Wunderground v.1.15,2013-05-07 02:50:00,
2013-05-06 22:51:00,50.3,46.0,30.21,WSW,250,0.0,0.0,85,0.00,,,0.00,Wunderground v.1.15,2013-05-07 02:51:00,
2013-05-06 22:54:00,50.3,46.0,30.21,WSW,252,0.0,0.0,85,0.00,,,0.00,Wunderground v.1.15,2013-05-07 02:54:00,
2013-05-06 22:56:00,50.2,45.9,30.20,WSW,252,0.0,1.0,85,0.00,,,0.00,Wunderground v.1.15,2013-05-07 02:56:00,
2013-05-06 22:59:00,50.1,45.8,30.20,WSW,253,0.0,1.0,85,0.00,,,0.00,Wunderground v.1.15,2013-05-07 02:59:00,
2013-05-06 23:01:00,50.1,45.8,30.20,WSW,252,0.0,0.0,85,0.00,,,0.00,Wunderground v.1.15,2013-05-07 03:01:00,
2013-05-06 23:02:00,50.0,45.7,30.20,WSW,253,0.0,0.0,85,0.00,,,0.00,Wunderground v.1.15,2013-05-07 03:02:00,
2013-05-06 23:04:00,50.1,45.8,30.20,SW,219,0.0,1.0,85,0.00,,,0.00,Wunderground v.1.15,2013-05-07 03:04:00,
2013-05-06 23:06:00,50.0,45.7,30.21,SW,219,0.0,1.0,85,0.00,,,0.00,Wunderground v.1.15,2013-05-07 03:06:00,
2013-05-06 23:07:00,50.0,45.7,30.21,SW,219,0.0,1.0,85,0.00,,,0.00,Wunderground v.1.15,2013-05-07 03:07:00,
2013-05-06 23:09:00,50.0,45.7,30.20,SW,219,0.0,1.0,85,0.00,,,0.00,Wunderground v.1.15,2013-05-07 03:09:00,
2013-05-06 23:11:00,50.0,45.7,30.20,SW,219,0.0,0.0,85,0.00,,,0.00,Wunderground v.1.15,2013-05-07 03:11:00,
2013-05-06 23:12:00,50.0,45.7,30.20,SW,219,0.0,0.0,85,0.00,,,0.00,Wunderground v.1.15,2013-05-07 03:12:00,
2013-05-06 23:14:00,49.9,45.6,30.20,SW,219,0.0,0.0,85,0.00,,,0.00,Wunderground v.1.15,2013-05-07 03:14:00,
2013-05-06 23:16:00,49.9,45.6,30.20,SW,219,0.0,0.0,85,0.00,,,0.00,Wunderground v.1.15,2013-05-07 03:16:00,
2013-05-06 23:17:00,49.8,45.5,30.20,SW,219,0.0,0.0,85,0.00,,,0.00,Wunderground v.1.15,2013-05-07 03:17:00,
2013-05-06 23:19:00,49.8,45.5,30.20,SW,219,0.0,0.0,85,0.00,,,0.00,Wunderground v.1.15,2013-05-07 03:19:00,
2013-05-06 23:21:00,49.7,45.4,30.20,NW,315,0.0,1.0,85,0.00,,,0.00,Wunderground v.1.15,2013-05-07 03:21:00,
2013-05-06 23:22:00,49.7,45.4,30.20,NW,314,0.0,1.0,85,0.00,,,0.00,Wunderground v.1.15,2013-05-07 03:22:00,
2013-05-06 23:23:00,49.7,45.7,30.20,NW,315,0.0,1.0,86,0.00,,,0.00,Wunderground v.1.15,2013-05-07 03:23:00,
2013-05-06 23:24:00,49.6,45.3,30.20,NW,315,0.0,1.0,85,0.00,,,0.00,Wunderground v.1.15,2013-05-07 03:24:00,
2013-05-06 23:27:00,49.5,45.5,30.20,NW,314,0.0,1.0,86,0.00,,,0.00,Wunderground v.1.15,2013-05-07 03:27:00,
2013-05-06 23:28:00,49.5,45.5,30.20,NW,315,0.0,1.0,86,0.00,,,0.00,Wunderground v.1.15,2013-05-07 03:28:00,
2013-05-06 23:31:00,49.3,45.3,30.20,NW,314,0.0,0.0,86,0.00,,,0.00,Wunderground v.1.15,2013-05-07 03:31:00,
2013-05-06 23:32:00,49.3,45.3,30.20,NW,315,0.0,0.0,86,0.00,,,0.00,Wunderground v.1.15,2013-05-07 03:32:00,
2013-05-06 23:33:00,49.3,45.3,30.20,NW,315,0.0,0.0,86,0.00,,,0.00,Wunderground v.1.15,2013-05-07 03:33:00,
2013-05-06 23:36:00,49.1,45.1,30.20,NW,315,0.0,0.0,86,0.00,,,0.00,Wunderground v.1.15,2013-05-07 03:36:00,
2013-05-06 23:37:00,49.0,45.0,30.20,NW,315,0.0,0.0,86,0.00,,,0.00,Wunderground v.1.15,2013-05-07 03:37:00,
2013-05-06 23:38:00,48.9,44.6,30.20,NW,315,0.0,0.0,85,0.00,,,0.00,Wunderground v.1.15,2013-05-07 03:38:00,
2013-05-06 23:42:00,48.7,44.7,30.20,NW,315,0.0,0.0,86,0.00,,,0.00,Wunderground v.1.15,2013-05-07 03:42:00,
2013-05-06 23:43:00,48.7,44.7,30.20,NW,314,0.0,0.0,86,0.00,,,0.00,Wunderground v.1.15,2013-05-07 03:43:00,
2013-05-06 23:44:00,48.6,44.6,30.20,NW,314,0.0,0.0,86,0.00,,,0.00,Wunderground v.1.15,2013-05-07 03:44:00,
2013-05-06 23:47:00,48.4,44.7,30.20,NW,315,0.0,0.0,87,0.00,,,0.00,Wunderground v.1.15,2013-05-07 03:47:00,
2013-05-06 23:48:00,48.4,44.7,30.20,NW,314,0.0,0.0,87,0.00,,,0.00,Wunderground v.1.15,2013-05-07 03:48:00,
2013-05-06 23:49:00,48.4,44.7,30.20,NW,314,0.0,0.0,87,0.00,,,0.00,Wunderground v.1.15,2013-05-07 03:49:00,
2013-05-06 23:52:00,48.4,44.7,30.20,NW,314,0.0,0.0,87,0.00,,,0.00,Wunderground v.1.15,2013-05-07 03:52:00,
2013-05-06 23:53:00,48.3,44.6,30.20,NW,314,0.0,0.0,87,0.00,,,0.00,Wunderground v.1.15,2013-05-07 03:53:00,
2013-05-06 23:54:00,48.3,44.6,30.20,NW,314,0.0,0.0,87,0.00,,,0.00,Wunderground v.1.15,2013-05-07 03:54:00,
2013-05-06 23:57:00,48.3,44.6,30.20,NW,315,0.0,0.0,87,0.00,,,0.00,Wunderground v.1.15,2013-05-07 03:57:00,
2013-05-06 23:58:00,48.2,44.5,30.20,WNW,300,0.0,0.0,87,0.00,,,0.00,Wunderground v.1.15,2013-05-07 03:58:00,
2013-05-06 23:59:00,48.2,44.5,30.20,WNW,283,0.0,1.0,87,0.00,,,0.00,Wunderground v.1.15,2013-05-07 03:59:00,